| time (UTC) | temp F | wind direction | speed knots | gust knots | rain 1hr in | rain 24hr in | rain mn in | humidity % | barometer mb |
| 20260504032707 | 51 | 257 | 1.7 | 2.6 | 0.00 | 0.00 | 0.00 | 67 | 1003.7 |
| 20260504032611 | 51 | 257 | 1.7 | 2.6 | 0.00 | 0.00 | 0.00 | 67 | 1003.7 |
| 20260504032537 | 51 | 257 | 1.7 | 2.6 | 0.00 | 0.00 | 0.00 | 66 | 1003.7 |
| 20260504032420 | 51 | 257 | 1.7 | 2.6 | 0.00 | 0.00 | 0.00 | 66 | 1003.8 |
| 20260504032307 | 51 | 257 | 1.7 | 2.6 | 0.00 | 0.00 | 0.00 | 66 | 1003.8 |
| 20260504032230 | 51 | 257 | 1.7 | 2.6 | 0.00 | 0.00 | 0.00 | 65 | 1003.9 |
| 20260504032106 | 51 | 259 | 1.7 | 2.6 | 0.00 | 0.00 | 0.00 | 66 | 1003.8 |
| 20260504032030 | 51 | 259 | 1.7 | 2.6 | 0.00 | 0.00 | 0.00 | 66 | 1003.9 |
| 20260504031905 | 51 | 259 | 0.9 | 2.6 | 0.00 | 0.00 | 0.00 | 66 | 1003.8 |
| 20260504031809 | 51 | 259 | 1.7 | 2.6 | 0.00 | 0.00 | 0.00 | 66 | 1003.9 |
| 20260504031734 | 51 | 259 | 1.7 | 2.6 | 0.00 | 0.00 | 0.00 | 66 | 1004.0 |
| 20260504031622 | 51 | 259 | 1.7 | 2.6 | 0.00 | 0.00 | 0.00 | 65 | 1004.0 |
| 20260504031527 | 51 | 259 | 1.7 | 2.6 | 0.00 | 0.00 | 0.00 | 65 | 1004.0 |
| 20260504031403 | 51 | 259 | 0.9 | 1.7 | 0.00 | 0.00 | 0.00 | 66 | 1004.0 |
| 20260504031308 | 51 | 259 | 1.7 | 1.7 | 0.00 | 0.00 | 0.00 | 66 | 1004.0 |
| 20260504031210 | 51 | 259 | 0.9 | 1.7 | 0.00 | 0.00 | 0.00 | 66 | 1004.0 |
| 20260504031114 | 51 | 259 | 0.9 | 1.7 | 0.00 | 0.00 | 0.00 | 66 | 1004.1 |
| 20260504031023 | 52 | 259 | 0.9 | 2.6 | 0.00 | 0.00 | 0.00 | 66 | 1004.1 |
| 20260504030927 | 52 | 259 | 1.7 | 2.6 | 0.00 | 0.00 | 0.00 | 66 | 1004.1 |
| 20260504030810 | 52 | 259 | 0.9 | 2.6 | 0.00 | 0.00 | 0.00 | 66 | 1004.1 |
| 20260504030735 | 52 | 259 | 0.9 | 2.6 | 0.00 | 0.00 | 0.00 | 66 | 1004.1 |
| 20260504030618 | 52 | 259 | 0.9 | 2.6 | 0.00 | 0.00 | 0.00 | 66 | 1004.0 |
| 20260504030522 | 52 | 259 | 0.9 | 2.6 | 0.00 | 0.00 | 0.00 | 65 | 1004.1 |
| 20260504030407 | 52 | 259 | 1.7 | 2.6 | 0.00 | 0.00 | 0.00 | 65 | 1004.1 |
| 20260504030334 | 52 | 259 | 1.7 | 2.6 | 0.00 | 0.00 | 0.00 | 65 | 1004.1 |
| 20260504030218 | 52 | 259 | 1.7 | 2.6 | 0.00 | 0.00 | 0.00 | 64 | 1004.1 |
| 20260504030121 | 52 | 259 | 1.7 | 2.6 | 0.00 | 0.00 | 0.00 | 64 | 1004.2 |
| 20260504030005 | 52 | 259 | 1.7 | 2.6 | 0.00 | 0.00 | 0.00 | 64 | 1004.1 |
| 20260504025927 | 52 | 259 | 1.7 | 2.6 | 0.00 | 0.00 | 0.00 | 62 | 1004.2 |
| 20260504025808 | 52 | 259 | 1.7 | 2.6 | 0.00 | 0.00 | 0.00 | 61 | 1004.1 |
| 20260504025711 | 52 | 259 | 1.7 | 2.6 | 0.00 | 0.00 | 0.00 | 61 | 1004.2 |
| 20260504025639 | 52 | 259 | 1.7 | 2.6 | 0.00 | 0.00 | 0.00 | 61 | 1004.2 |
| 20260504025541 | 52 | 259 | 1.7 | 2.6 | 0.00 | 0.00 | 0.00 | 61 | 1004.2 |
| 20260504025424 | 52 | 259 | 1.7 | 2.6 | 0.00 | 0.00 | 0.00 | 60 | 1004.2 |
| 20260504025328 | 52 | 259 | 1.7 | 2.6 | 0.00 | 0.00 | 0.00 | 61 | 1004.2 |
| 20260504025204 | 53 | 260 | 1.7 | 2.6 | 0.00 | 0.00 | 0.00 | 60 | 1004.2 |
| 20260504025128 | 53 | 259 | 1.7 | 2.6 | 0.00 | 0.00 | 0.00 | 59 | 1004.2 |
| 20260504025030 | 53 | 260 | 1.7 | 2.6 | 0.00 | 0.00 | 0.00 | 59 | 1004.2 |
| 20260504024931 | 53 | 259 | 1.7 | 2.6 | 0.00 | 0.00 | 0.00 | 59 | 1004.3 |
| 20260504024813 | 53 | 260 | 1.7 | 2.6 | 0.00 | 0.00 | 0.00 | 59 | 1004.3 |
| 20260504024720 | 53 | 259 | 1.7 | 2.6 | 0.00 | 0.00 | 0.00 | 57 | 1004.3 |
| 20260504024605 | 53 | 260 | 1.7 | 2.6 | 0.00 | 0.00 | 0.00 | 57 | 1004.3 |
| 20260504024529 | 53 | 260 | 1.7 | 2.6 | 0.00 | 0.00 | 0.00 | 57 | 1004.3 |
| 20260504024409 | 53 | 259 | 1.7 | 2.6 | 0.00 | 0.00 | 0.00 | 57 | 1004.3 |
| 20260504024333 | 54 | 260 | 1.7 | 2.6 | 0.00 | 0.00 | 0.00 | 57 | 1004.3 |
| 20260504024218 | 54 | 260 | 1.7 | 2.6 | 0.00 | 0.00 | 0.00 | 59 | 1004.3 |
| 20260504024142 | 54 | 260 | 1.7 | 2.6 | 0.00 | 0.00 | 0.00 | 56 | 1004.4 |
| 20260504024028 | 54 | 260 | 1.7 | 2.6 | 0.00 | 0.00 | 0.00 | 55 | 1004.3 |
| 20260504023905 | 54 | 264 | 0.9 | 2.6 | 0.00 | 0.00 | 0.00 | 54 | 1004.3 |
| 20260504023828 | 54 | 264 | 0.9 | 1.7 | 0.00 | 0.00 | 0.00 | 56 | 1004.3 |
| 20260504023705 | 54 | 270 | 0.9 | 1.7 | 0.00 | 0.00 | 0.00 | 55 | 1004.4 |
| 20260504023611 | 54 | 270 | 0.9 | 1.7 | 0.00 | 0.00 | 0.00 | 56 | 1004.4 |
| 20260504023535 | 54 | 270 | 0.0 | 1.7 | 0.00 | 0.00 | 0.00 | 56 | 1004.4 |
| 20260504023417 | 54 | 270 | 0.0 | 1.7 | 0.00 | 0.00 | 0.00 | 58 | 1004.3 |
| 20260504023307 | 54 | 270 | 0.9 | 1.7 | 0.00 | 0.00 | 0.00 | 57 | 1004.4 |
| 20260504023211 | 54 | 270 | 0.9 | 1.7 | 0.00 | 0.00 | 0.00 | 56 | 1004.4 |
| 20260504023114 | 54 | 270 | 0.9 | 1.7 | 0.00 | 0.00 | 0.00 | 55 | 1004.4 |
| 20260504023019 | 54 | 270 | 0.9 | 1.7 | 0.00 | 0.00 | 0.00 | 54 | 1004.4 |
| 20260504022923 | 54 | 270 | 0.9 | 1.7 | 0.00 | 0.00 | 0.00 | 52 | 1004.4 |
| 20260504022812 | 55 | 270 | 0.9 | 1.7 | 0.00 | 0.00 | 0.00 | 52 | 1004.4 |
| 20260504022717 | 55 | 270 | 0.9 | 1.7 | 0.00 | 0.00 | 0.00 | 51 | 1004.4 |
| 20260504022620 | 55 | 270 | 0.9 | 1.7 | 0.00 | 0.00 | 0.00 | 51 | 1004.4 |
| 20260504022543 | 55 | 270 | 0.9 | 1.7 | 0.00 | 0.00 | 0.00 | 51 | 1004.4 |
| 20260504022427 | 55 | 270 | 0.9 | 1.7 | 0.00 | 0.00 | 0.00 | 52 | 1004.4 |
| 20260504022351 | 55 | 270 | 0.9 | 1.7 | 0.00 | 0.00 | 0.00 | 53 | 1004.4 |
| 20260504022208 | 55 | 270 | 0.9 | 1.7 | 0.00 | 0.00 | 0.00 | 50 | 1004.3 |
| 20260504022132 | 55 | 270 | 0.9 | 1.7 | 0.00 | 0.00 | 0.00 | 50 | 1004.3 |
| 20260504022039 | 55 | 270 | 0.9 | 1.7 | 0.00 | 0.00 | 0.00 | 51 | 1004.3 |
| 20260504021943 | 55 | 270 | 0.9 | 1.7 | 0.00 | 0.00 | 0.00 | 51 | 1004.4 |
| 20260504021807 | 55 | 270 | 0.9 | 1.7 | 0.00 | 0.00 | 0.00 | 52 | 1004.3 |
| 20260504021731 | 55 | 270 | 0.9 | 1.7 | 0.00 | 0.00 | 0.00 | 52 | 1004.3 |
| 20260504021607 | 55 | 270 | 0.9 | 1.7 | 0.00 | 0.00 | 0.00 | 50 | 1004.3 |
| 20260504021512 | 55 | 270 | 0.9 | 2.6 | 0.00 | 0.00 | 0.00 | 50 | 1004.4 |
| 20260504021416 | 55 | 270 | 0.9 | 2.6 | 0.00 | 0.00 | 0.00 | 50 | 1004.3 |
| 20260504021305 | 56 | 270 | 0.9 | 2.6 | 0.00 | 0.00 | 0.00 | 50 | 1004.3 |
| 20260504021229 | 56 | 270 | 0.9 | 2.6 | 0.00 | 0.00 | 0.00 | 50 | 1004.3 |
| 20260504021134 | 56 | 270 | 0.9 | 2.6 | 0.00 | 0.00 | 0.00 | 51 | 1004.3 |
| 20260504021035 | 56 | 270 | 0.9 | 2.6 | 0.00 | 0.00 | 0.00 | 50 | 1004.3 |
| 20260504020939 | 56 | 270 | 0.9 | 2.6 | 0.00 | 0.00 | 0.00 | 50 | 1004.3 |
| 20260504020841 | 56 | 270 | 0.9 | 2.6 | 0.00 | 0.00 | 0.00 | 51 | 1004.3 |
| 20260504020704 | 56 | 270 | 0.9 | 2.6 | 0.00 | 0.00 | 0.00 | 50 | 1004.4 |
| 20260504020608 | 56 | 270 | 0.9 | 2.6 | 0.00 | 0.00 | 0.00 | 49 | 1004.3 |
| 20260504020517 | 56 | 270 | 0.9 | 2.6 | 0.00 | 0.00 | 0.00 | 48 | 1004.3 |
| 20260504020421 | 56 | 270 | 0.9 | 2.6 | 0.00 | 0.00 | 0.00 | 49 | 1004.4 |
| 20260504020326 | 56 | 270 | 0.9 | 2.6 | 0.00 | 0.00 | 0.00 | 48 | 1004.3 |
| 20260504020228 | 57 | 270 | 0.9 | 2.6 | 0.00 | 0.00 | 0.00 | 48 | 1004.3 |
| 20260504020111 | 57 | 270 | 1.7 | 3.5 | 0.00 | 0.00 | 0.00 | 49 | 1004.3 |
| 20260504020036 | 57 | 270 | 1.7 | 3.5 | 0.00 | 0.00 | 0.00 | 48 | 1004.3 |
| 20260504015939 | 57 | 270 | 1.7 | 3.5 | 0.00 | 0.00 | 0.00 | 48 | 1004.3 |
| 20260504015807 | 57 | 270 | 1.7 | 3.5 | 0.00 | 0.00 | 0.00 | 48 | 1004.3 |
| 20260504015732 | 57 | 270 | 1.7 | 3.5 | 0.00 | 0.00 | 0.00 | 48 | 1004.3 |
| 20260504015615 | 57 | 270 | 1.7 | 3.5 | 0.00 | 0.00 | 0.00 | 47 | 1004.4 |
| 20260504015519 | 57 | 270 | 1.7 | 3.5 | 0.00 | 0.00 | 0.00 | 48 | 1004.3 |
| 20260504015424 | 58 | 270 | 1.7 | 3.5 | 0.00 | 0.00 | 0.00 | 48 | 1004.3 |
| 20260504015308 | 58 | 270 | 1.7 | 3.5 | 0.00 | 0.00 | 0.00 | 46 | 1004.3 |
| 20260504015212 | 58 | 274 | 1.7 | 2.6 | 0.00 | 0.00 | 0.00 | 46 | 1004.3 |
| 20260504015141 | 58 | 274 | 1.7 | 2.6 | 0.00 | 0.00 | 0.00 | 46 | 1004.3 |
| 20260504015023 | 58 | 274 | 1.7 | 2.6 | 0.00 | 0.00 | 0.00 | 45 | 1004.2 |
| 20260504014927 | 58 | 275 | 1.7 | 2.6 | 0.00 | 0.00 | 0.00 | 45 | 1004.3 |
| 20260504014829 | 58 | 275 | 1.7 | 2.6 | 0.00 | 0.00 | 0.00 | 44 | 1004.3 |
| 20260504014712 | 59 | 275 | 1.7 | 2.6 | 0.00 | 0.00 | 0.00 | 44 | 1004.3 |
| 20260504014617 | 59 | 276 | 1.7 | 2.6 | 0.00 | 0.00 | 0.00 | 45 | 1004.3 |
| 20260504014542 | 59 | 276 | 1.7 | 2.6 | 0.00 | 0.00 | 0.00 | 44 | 1004.3 |
| 20260504014409 | 59 | 276 | 1.7 | 2.6 | 0.00 | 0.00 | 0.00 | 44 | 1004.3 |
| 20260504014313 | 59 | 276 | 1.7 | 2.6 | 0.00 | 0.00 | 0.00 | 44 | 1004.3 |
| 20260504014216 | 59 | 276 | 1.7 | 2.6 | 0.00 | 0.00 | 0.00 | 43 | 1004.3 |
| 20260504014121 | 59 | 276 | 1.7 | 2.6 | 0.00 | 0.00 | 0.00 | 43 | 1004.3 |
| 20260504014005 | 59 | 276 | 1.7 | 2.6 | 0.00 | 0.00 | 0.00 | 43 | 1004.3 |
| 20260504013929 | 60 | 277 | 1.7 | 2.6 | 0.00 | 0.00 | 0.00 | 43 | 1004.3 |
| 20260504013832 | 60 | 277 | 1.7 | 2.6 | 0.00 | 0.00 | 0.00 | 43 | 1004.3 |
| 20260504013718 | 60 | 277 | 0.9 | 2.6 | 0.00 | 0.00 | 0.00 | 41 | 1004.2 |
| 20260504013623 | 60 | 277 | 1.7 | 2.6 | 0.00 | 0.00 | 0.00 | 42 | 1004.3 |
| 20260504013527 | 60 | 277 | 1.7 | 2.6 | 0.00 | 0.00 | 0.00 | 42 | 1004.3 |
| 20260504013410 | 60 | 277 | 1.7 | 2.6 | 0.00 | 0.00 | 0.00 | 41 | 1004.3 |
| 20260504013314 | 60 | 277 | 1.7 | 2.6 | 0.00 | 0.00 | 0.00 | 41 | 1004.3 |
| 20260504013239 | 60 | 277 | 1.7 | 2.6 | 0.00 | 0.00 | 0.00 | 41 | 1004.3 |
| 20260504013120 | 60 | 277 | 1.7 | 3.5 | 0.00 | 0.00 | 0.00 | 42 | 1004.4 |
| 20260504013009 | 60 | 277 | 1.7 | 3.5 | 0.00 | 0.00 | 0.00 | 42 | 1004.3 |
| 20260504012934 | 61 | 277 | 1.7 | 3.5 | 0.00 | 0.00 | 0.00 | 41 | 1004.3 |
| 20260504012816 | 61 | 277 | 1.7 | 3.5 | 0.00 | 0.00 | 0.00 | 43 | 1004.4 |
| 20260504012740 | 61 | 277 | 1.7 | 4.3 | 0.00 | 0.00 | 0.00 | 42 | 1004.4 |
| 20260504012624 | 61 | 277 | 1.7 | 4.3 | 0.00 | 0.00 | 0.00 | 41 | 1004.3 |
| 20260504012528 | 61 | 279 | 1.7 | 4.3 | 0.00 | 0.00 | 0.00 | 43 | 1004.3 |
| 20260504012411 | 61 | 279 | 2.6 | 4.3 | 0.00 | 0.00 | 0.00 | 42 | 1004.3 |
| 20260504012320 | 61 | 279 | 2.6 | 4.3 | 0.00 | 0.00 | 0.00 | 42 | 1004.3 |
| 20260504012244 | 61 | 281 | 2.6 | 4.3 | 0.00 | 0.00 | 0.00 | 41 | 1004.3 |
| 20260504012108 | 61 | 283 | 2.6 | 4.3 | 0.00 | 0.00 | 0.00 | 42 | 1004.4 |
| 20260504012011 | 62 | 283 | 2.6 | 4.3 | 0.00 | 0.00 | 0.00 | 42 | 1004.4 |
| 20260504011936 | 62 | 283 | 3.5 | 4.3 | 0.00 | 0.00 | 0.00 | 44 | 1004.4 |
| 20260504011819 | 62 | 271 | 2.6 | 4.3 | 0.00 | 0.00 | 0.00 | 41 | 1004.4 |
| 20260504011723 | 62 | 271 | 2.6 | 4.3 | 0.00 | 0.00 | 0.00 | 41 | 1004.4 |
| 20260504011612 | 62 | 271 | 2.6 | 6.1 | 0.00 | 0.00 | 0.00 | 42 | 1004.4 |
| 20260504011517 | 62 | 271 | 2.6 | 6.1 | 0.00 | 0.00 | 0.00 | 41 | 1004.4 |
| 20260504011440 | 62 | 270 | 2.6 | 6.1 | 0.00 | 0.00 | 0.00 | 41 | 1004.4 |
| 20260504011323 | 63 | 284 | 2.6 | 6.1 | 0.00 | 0.00 | 0.00 | 41 | 1004.4 |
| 20260504011228 | 63 | 284 | 2.6 | 6.1 | 0.00 | 0.00 | 0.00 | 41 | 1004.5 |
| 20260504011106 | 63 | 282 | 2.6 | 8.7 | 0.00 | 0.00 | 0.00 | 40 | 1004.4 |
| 20260504011015 | 63 | 282 | 2.6 | 8.7 | 0.00 | 0.00 | 0.00 | 41 | 1004.4 |
| 20260504010940 | 63 | 281 | 3.5 | 8.7 | 0.00 | 0.00 | 0.00 | 41 | 1004.5 |
| 20260504010822 | 63 | 284 | 3.5 | 8.7 | 0.00 | 0.00 | 0.00 | 39 | 1004.4 |
| 20260504010707 | 63 | 282 | 4.3 | 8.7 | 0.00 | 0.00 | 0.00 | 39 | 1004.4 |
| 20260504010630 | 64 | 283 | 4.3 | 8.7 | 0.00 | 0.00 | 0.00 | 39 | 1004.4 |
| 20260504010508 | 64 | 292 | 4.3 | 8.7 | 0.00 | 0.00 | 0.00 | 38 | 1004.4 |
| 20260504010433 | 64 | 291 | 5.2 | 8.7 | 0.00 | 0.00 | 0.00 | 37 | 1004.4 |
| 20260504010320 | 64 | 325 | 4.3 | 8.7 | 0.00 | 0.00 | 0.00 | 37 | 1004.4 |
| 20260504010243 | 64 | 270 | 2.6 | 6.1 | 0.00 | 0.00 | 0.00 | 38 | 1004.4 |
| 20260504010107 | 64 | 296 | 3.5 | 6.1 | 0.00 | 0.00 | 0.00 | 39 | 1004.4 |
| 20260504010012 | 64 | 296 | 3.5 | 6.1 | 0.00 | 0.00 | 0.00 | 36 | 1004.4 |
| 20260504005916 | 65 | 302 | 3.5 | 7.8 | 0.00 | 0.00 | 0.00 | 39 | 1004.5 |
| 20260504005820 | 65 | 282 | 3.5 | 9.6 | 0.00 | 0.00 | 0.00 | 39 | 1004.5 |
| 20260504005708 | 65 | 284 | 3.5 | 10.4 | 0.00 | 0.00 | 0.00 | 39 | 1004.4 |
| 20260504005611 | 65 | 281 | 3.5 | 10.4 | 0.00 | 0.00 | 0.00 | 36 | 1004.4 |
| 20260504005515 | 65 | 295 | 3.5 | 10.4 | 0.00 | 0.00 | 0.00 | 35 | 1004.5 |
| 20260504005419 | 65 | 306 | 3.5 | 10.4 | 0.00 | 0.00 | 0.00 | 35 | 1004.4 |
| 20260504005323 | 65 | 306 | 4.3 | 10.4 | 0.00 | 0.00 | 0.00 | 35 | 1004.5 |
| 20260504005227 | 65 | 300 | 5.2 | 10.4 | 0.00 | 0.00 | 0.00 | 34 | 1004.5 |
| 20260504005130 | 65 | 308 | 7.0 | 10.4 | 0.00 | 0.00 | 0.00 | 35 | 1004.5 |
| 20260504005016 | 65 | 295 | 7.0 | 10.4 | 0.00 | 0.00 | 0.00 | 35 | 1004.5 |
| 20260504004941 | 65 | 301 | 6.1 | 10.4 | 0.00 | 0.00 | 0.00 | 35 | 1004.5 |
| 20260504004823 | 65 | 299 | 5.2 | 10.4 | 0.00 | 0.00 | 0.00 | 35 | 1004.5 |
| 20260504004707 | 65 | 281 | 7.0 | 10.4 | 0.00 | 0.00 | 0.00 | 35 | 1004.5 |
| 20260504004611 | 65 | 284 | 7.0 | 10.4 | 0.00 | 0.00 | 0.00 | 35 | 1004.5 |
| 20260504004517 | 66 | 302 | 6.1 | 10.4 | 0.00 | 0.00 | 0.00 | 35 | 1004.5 |
| 20260504004405 | 66 | 297 | 6.1 | 10.4 | 0.00 | 0.00 | 0.00 | 36 | 1004.5 |
| 20260504004330 | 66 | 302 | 7.0 | 9.6 | 0.00 | 0.00 | 0.00 | 35 | 1004.5 |
| 20260504004213 | 66 | 302 | 7.8 | 9.6 | 0.00 | 0.00 | 0.00 | 34 | 1004.5 |
| 20260504004118 | 66 | 294 | 7.8 | 9.6 | 0.00 | 0.00 | 0.00 | 34 | 1004.5 |
| 20260504004023 | 66 | 290 | 6.1 | 9.6 | 0.00 | 0.00 | 0.00 | 35 | 1004.5 |
| 20260504003909 | 66 | 286 | 5.2 | 8.7 | 0.00 | 0.00 | 0.00 | 35 | 1004.5 |
| 20260504003834 | 66 | 302 | 5.2 | 9.6 | 0.00 | 0.00 | 0.00 | 35 | 1004.5 |
| 20260504003718 | 66 | 300 | 4.3 | 12.2 | 0.00 | 0.00 | 0.00 | 35 | 1004.5 |
| 20260504003607 | 66 | 284 | 5.2 | 12.2 | 0.00 | 0.00 | 0.00 | 35 | 1004.5 |
| 20260504003512 | 66 | 288 | 5.2 | 12.2 | 0.00 | 0.00 | 0.00 | 36 | 1004.6 |
| 20260504003418 | 66 | 300 | 5.2 | 12.2 | 0.00 | 0.00 | 0.00 | 36 | 1004.6 |
| 20260504003323 | 66 | 307 | 6.1 | 12.2 | 0.00 | 0.00 | 0.00 | 35 | 1004.6 |
| 20260504003206 | 67 | 304 | 6.1 | 12.2 | 0.00 | 0.00 | 0.00 | 33 | 1004.6 |
| 20260504003116 | 66 | 301 | 6.1 | 12.2 | 0.00 | 0.00 | 0.00 | 33 | 1004.6 |
| 20260504003021 | 66 | 324 | 7.0 | 12.2 | 0.00 | 0.00 | 0.00 | 34 | 1004.6 |
| 20260504002907 | 66 | 351 | 7.8 | 10.4 | 0.00 | 0.00 | 0.00 | 33 | 1004.6 |
| 20260504002813 | 66 | 315 | 7.0 | 9.6 | 0.00 | 0.00 | 0.00 | 34 | 1004.6 |
| 20260504002718 | 66 | 293 | 6.1 | 9.6 | 0.00 | 0.00 | 0.00 | 34 | 1004.7 |
| 20260504002622 | 66 | 286 | 5.2 | 9.6 | 0.00 | 0.00 | 0.00 | 33 | 1004.6 |
| 20260504002511 | 67 | 308 | 4.3 | 9.6 | 0.00 | 0.00 | 0.00 | 35 | 1004.6 |
| 20260504002417 | 67 | 273 | 3.5 | 9.6 | 0.00 | 0.00 | 0.00 | 36 | 1004.7 |
| 20260504002323 | 67 | 280 | 5.2 | 9.6 | 0.00 | 0.00 | 0.00 | 34 | 1004.7 |
| 20260504002207 | 67 | 291 | 5.2 | 9.6 | 0.00 | 0.00 | 0.00 | 35 | 1004.7 |
| 20260504002110 | 67 | 290 | 4.3 | 9.6 | 0.00 | 0.00 | 0.00 | 34 | 1004.6 |
| 20260504002016 | 67 | 309 | 5.2 | 9.6 | 0.00 | 0.00 | 0.00 | 36 | 1004.7 |
| 20260504001905 | 67 | 310 | 7.0 | 9.6 | 0.00 | 0.00 | 0.00 | 35 | 1004.7 |
| 20260504001811 | 67 | 279 | 7.0 | 9.6 | 0.00 | 0.00 | 0.00 | 34 | 1004.7 |
| 20260504001717 | 67 | 288 | 7.0 | 9.6 | 0.00 | 0.00 | 0.00 | 34 | 1004.7 |
| 20260504001622 | 67 | 295 | 7.0 | 9.6 | 0.00 | 0.00 | 0.00 | 33 | 1004.8 |
| 20260504001507 | 67 | 360 | 6.1 | 9.6 | 0.00 | 0.00 | 0.00 | 32 | 1004.7 |
| 20260504001433 | 67 | 314 | 5.2 | 8.7 | 0.00 | 0.00 | 0.00 | 33 | 1004.7 |
| 20260504001322 | 67 | 296 | 4.3 | 10.4 | 0.00 | 0.00 | 0.00 | 33 | 1004.7 |
| 20260504001227 | 67 | 309 | 5.2 | 10.4 | 0.00 | 0.00 | 0.00 | 36 | 1004.7 |
| 20260504001112 | 67 | 298 | 5.2 | 11.3 | 0.00 | 0.00 | 0.00 | 32 | 1004.8 |
| 20260504001038 | 67 | 309 | 5.2 | 11.3 | 0.00 | 0.00 | 0.00 | 35 | 1004.8 |
| 20260504000923 | 67 | 302 | 6.1 | 11.3 | 0.00 | 0.00 | 0.00 | 34 | 1004.8 |
| 20260504000809 | 67 | 309 | 7.8 | 11.3 | 0.00 | 0.00 | 0.00 | 33 | 1004.8 |
| 20260504000718 | 67 | 286 | 7.8 | 11.3 | 0.00 | 0.00 | 0.00 | 33 | 1004.8 |
| 20260504000604 | 67 | 316 | 7.8 | 11.3 | 0.00 | 0.00 | 0.00 | 32 | 1004.8 |
| 20260504000510 | 67 | 298 | 7.8 | 11.3 | 0.00 | 0.00 | 0.00 | 34 | 1004.8 |
| 20260504000416 | 67 | 278 | 7.8 | 11.3 | 0.00 | 0.00 | 0.00 | 35 | 1004.8 |
| 20260504000321 | 67 | 286 | 8.7 | 11.3 | 0.00 | 0.00 | 0.00 | 33 | 1004.8 |
| 20260504000207 | 67 | 290 | 7.8 | 11.3 | 0.00 | 0.00 | 0.00 | 34 | 1004.8 |
| 20260504000116 | 67 | 300 | 8.7 | 11.3 | 0.00 | 0.00 | 0.00 | 32 | 1004.7 |
| 20260504000021 | 67 | 299 | 8.7 | 11.3 | 0.00 | 0.00 | 0.00 | 33 | 1004.8 |
| 20260503235906 | 67 | 298 | 7.0 | 10.4 | 0.00 | 0.00 | 0.00 | 32 | 1004.7 |
| 20260503235831 | 67 | 294 | 5.2 | 9.6 | 0.00 | 0.00 | 0.00 | 33 | 1004.7 |
| 20260503235714 | 67 | 307 | 4.3 | 9.6 | 0.00 | 0.00 | 0.00 | 33 | 1004.8 |
| 20260503235619 | 67 | 294 | 3.5 | 9.6 | 0.00 | 0.00 | 0.00 | 35 | 1004.7 |
| 20260503235526 | 68 | 13 | 3.5 | 9.6 | 0.00 | 0.00 | 0.00 | 34 | 1004.7 |
| 20260503235410 | 68 | 300 | 5.2 | 9.6 | 0.00 | 0.00 | 0.00 | 32 | 1004.7 |
| 20260503235315 | 68 | 290 | 7.0 | 9.6 | 0.00 | 0.00 | 0.00 | 31 | 1004.7 |
| 20260503235240 | 68 | 318 | 7.0 | 10.4 | 0.00 | 0.00 | 0.00 | 31 | 1004.7 |
| 20260503235141 | 68 | 300 | 4.3 | 10.4 | 0.00 | 0.00 | 0.00 | 31 | 1004.7 |
| 20260503235005 | 68 | 304 | 2.6 | 10.4 | 0.00 | 0.00 | 0.00 | 32 | 1004.7 |
| 20260503234909 | 68 | 316 | 4.3 | 10.4 | 0.00 | 0.00 | 0.00 | 32 | 1004.7 |
| 20260503234818 | 68 | 344 | 5.2 | 10.4 | 0.00 | 0.00 | 0.00 | 32 | 1004.8 |
| 20260503234720 | 68 | 323 | 5.2 | 12.2 | 0.00 | 0.00 | 0.00 | 33 | 1004.7 |
| 20260503234604 | 68 | 279 | 5.2 | 12.2 | 0.00 | 0.00 | 0.00 | 30 | 1004.7 |
| 20260503234508 | 68 | 338 | 6.1 | 12.2 | 0.00 | 0.00 | 0.00 | 30 | 1004.7 |
| 20260503234412 | 68 | 315 | 6.1 | 12.2 | 0.00 | 0.00 | 0.00 | 30 | 1004.7 |
| 20260503234316 | 68 | 11 | 4.3 | 12.2 | 0.00 | 0.00 | 0.00 | 33 | 1004.8 |
| 20260503234204 | 69 | 355 | 5.2 | 12.2 | 0.00 | 0.00 | 0.00 | 32 | 1004.8 |
| 20260503234129 | 69 | 329 | 7.0 | 12.2 | 0.00 | 0.00 | 0.00 | 30 | 1004.8 |
| 20260503234031 | 69 | 355 | 7.8 | 12.2 | 0.00 | 0.00 | 0.00 | 30 | 1004.8 |
| 20260503233935 | 69 | 331 | 7.0 | 12.2 | 0.00 | 0.00 | 0.00 | 31 | 1004.8 |
| 20260503233818 | 69 | 314 | 6.1 | 11.3 | 0.00 | 0.00 | 0.00 | 31 | 1004.8 |
| 20260503233741 | 69 | 301 | 6.1 | 11.3 | 0.00 | 0.00 | 0.00 | 32 | 1004.7 |
| 20260503233625 | 69 | 315 | 7.8 | 11.3 | 0.00 | 0.00 | 0.00 | 32 | 1004.8 |
| 20260503233529 | 69 | 298 | 8.7 | 11.3 | 0.00 | 0.00 | 0.00 | 30 | 1004.8 |
| 20260503233412 | 69 | 311 | 8.7 | 11.3 | 0.00 | 0.00 | 0.00 | 30 | 1004.8 |
| 20260503233320 | 69 | 295 | 7.0 | 11.3 | 0.00 | 0.00 | 0.00 | 31 | 1004.8 |
| 20260503233204 | 69 | 314 | 5.2 | 10.4 | 0.00 | 0.00 | 0.00 | 31 | 1004.8 |
| 20260503233128 | 69 | 331 | 6.1 | 10.4 | 0.00 | 0.00 | 0.00 | 30 | 1004.8 |
| 20260503233031 | 69 | 351 | 7.0 | 12.2 | 0.00 | 0.00 | 0.00 | 30 | 1004.8 |
| 20260503232907 | 69 | 325 | 7.0 | 13.0 | 0.00 | 0.00 | 0.00 | 32 | 1004.8 |
| 20260503232809 | 69 | 294 | 6.1 | 13.0 | 0.00 | 0.00 | 0.00 | 30 | 1004.8 |
| 20260503232717 | 69 | 299 | 6.1 | 13.0 | 0.00 | 0.00 | 0.00 | 30 | 1004.8 |
| 20260503232622 | 69 | 334 | 7.0 | 13.0 | 0.00 | 0.00 | 0.00 | 30 | 1004.9 |
| 20260503232506 | 69 | 342 | 6.1 | 13.0 | 0.00 | 0.00 | 0.00 | 31 | 1004.8 |
| 20260503232410 | 70 | 288 | 5.2 | 13.0 | 0.00 | 0.00 | 0.00 | 30 | 1004.8 |
| 20260503232315 | 70 | 337 | 7.0 | 13.0 | 0.00 | 0.00 | 0.00 | 32 | 1004.9 |
| 20260503232218 | 70 | 306 | 8.7 | 13.0 | 0.00 | 0.00 | 0.00 | 30 | 1004.9 |
| 20260503232106 | 70 | 286 | 7.8 | 11.3 | 0.00 | 0.00 | 0.00 | 30 | 1004.9 |
| 20260503232031 | 70 | 298 | 7.0 | 10.4 | 0.00 | 0.00 | 0.00 | 29 | 1004.9 |
| 20260503231914 | 70 | 346 | 5.2 | 10.4 | 0.00 | 0.00 | 0.00 | 30 | 1004.9 |
| 20260503231818 | 70 | 316 | 6.1 | 12.2 | 0.00 | 0.00 | 0.00 | 30 | 1004.9 |
| 20260503231722 | 70 | 24 | 6.1 | 12.2 | 0.00 | 0.00 | 0.00 | 28 | 1004.9 |
| 20260503231606 | 70 | 336 | 6.1 | 12.2 | 0.00 | 0.00 | 0.00 | 30 | 1004.9 |
| 20260503231514 | 70 | 9 | 7.0 | 12.2 | 0.00 | 0.00 | 0.00 | 29 | 1004.9 |
| 20260503231419 | 70 | 347 | 7.0 | 12.2 | 0.00 | 0.00 | 0.00 | 29 | 1004.9 |
| 20260503231323 | 69 | 329 | 7.8 | 12.2 | 0.00 | 0.00 | 0.00 | 29 | 1004.8 |
| 20260503231206 | 69 | 327 | 7.8 | 13.9 | 0.00 | 0.00 | 0.00 | 28 | 1004.9 |
| 20260503231110 | 69 | 347 | 7.8 | 13.9 | 0.00 | 0.00 | 0.00 | 28 | 1004.9 |
| 20260503231015 | 69 | 309 | 8.7 | 13.9 | 0.00 | 0.00 | 0.00 | 28 | 1004.9 |
| 20260503230939 | 69 | 316 | 8.7 | 13.9 | 0.00 | 0.00 | 0.00 | 29 | 1004.9 |
| 20260503230806 | 69 | 324 | 7.8 | 13.9 | 0.00 | 0.00 | 0.00 | 30 | 1004.9 |
| 20260503230710 | 69 | 312 | 7.8 | 13.9 | 0.00 | 0.00 | 0.00 | 29 | 1004.9 |
| 20260503230613 | 69 | 327 | 7.8 | 13.9 | 0.00 | 0.00 | 0.00 | 32 | 1004.9 |
| 20260503230537 | 70 | 288 | 9.6 | 13.9 | 0.00 | 0.00 | 0.00 | 31 | 1005.0 |
| 20260503230420 | 70 | 292 | 10.4 | 13.9 | 0.00 | 0.00 | 0.00 | 28 | 1005.0 |
| 20260503230305 | 70 | 303 | 9.6 | 13.9 | 0.00 | 0.00 | 0.00 | 29 | 1004.9 |
| 20260503230212 | 70 | 300 | 8.7 | 13.0 | 0.00 | 0.00 | 0.00 | 32 | 1005.0 |
| 20260503230117 | 70 | 284 | 8.7 | 12.2 | 0.00 | 0.00 | 0.00 | 31 | 1005.0 |
| 20260503230041 | 70 | 308 | 10.4 | 12.2 | 0.00 | 0.00 | 0.00 | 29 | 1005.0 |
| 20260503225905 | 70 | 289 | 8.7 | 12.2 | 0.00 | 0.00 | 0.00 | 29 | 1005.0 |
| 20260503225809 | 70 | 310 | 7.8 | 11.3 | 0.00 | 0.00 | 0.00 | 29 | 1005.0 |
| 20260503225714 | 70 | 306 | 6.1 | 12.2 | 0.00 | 0.00 | 0.00 | 29 | 1005.0 |
| 20260503225622 | 70 | 306 | 6.1 | 12.2 | 0.00 | 0.00 | 0.00 | 30 | 1005.0 |
| 20260503225527 | 70 | 331 | 5.2 | 12.2 | 0.00 | 0.00 | 0.00 | 29 | 1005.0 |
| 20260503225410 | 70 | 294 | 5.2 | 13.0 | 0.00 | 0.00 | 0.00 | 29 | 1005.0 |
| 20260503225314 | 70 | 327 | 6.1 | 13.0 | 0.00 | 0.00 | 0.00 | 27 | 1005.2 |
| 20260503225219 | 70 | 314 | 5.2 | 13.0 | 0.00 | 0.00 | 0.00 | 28 | 1005.1 |
| 20260503225123 | 70 | 301 | 4.3 | 13.0 | 0.00 | 0.00 | 0.00 | 30 | 1005.1 |
| 20260503225012 | 70 | 350 | 6.1 | 13.0 | 0.00 | 0.00 | 0.00 | 27 | 1005.2 |
| 20260503224917 | 70 | 350 | 7.8 | 13.0 | 0.00 | 0.00 | 0.00 | 28 | 1005.3 |
| 20260503224822 | 71 | 323 | 7.0 | 13.9 | 0.00 | 0.00 | 0.00 | 29 | 1005.2 |
| 20260503224706 | 71 | 332 | 7.8 | 13.9 | 0.00 | 0.00 | 0.00 | 29 | 1005.2 |
| 20260503224630 | 71 | 316 | 7.8 | 13.9 | 0.00 | 0.00 | 0.00 | 29 | 1005.2 |
| 20260503224507 | 71 | 360 | 7.0 | 13.9 | 0.00 | 0.00 | 0.00 | 28 | 1005.1 |
| 20260503224431 | 71 | 330 | 7.8 | 13.9 | 0.00 | 0.00 | 0.00 | 28 | 1005.1 |
| 20260503224319 | 71 | 337 | 7.8 | 13.9 | 0.00 | 0.00 | 0.00 | 28 | 1005.2 |
| 20260503224222 | 71 | 348 | 7.8 | 13.9 | 0.00 | 0.00 | 0.00 | 29 | 1005.2 |
| 20260503224127 | 71 | 5 | 9.6 | 13.9 | 0.00 | 0.00 | 0.00 | 29 | 1005.1 |
| 20260503224011 | 71 | 326 | 8.7 | 13.9 | 0.00 | 0.00 | 0.00 | 32 | 1005.2 |
| 20260503223933 | 71 | 288 | 4.3 | 11.3 | 0.00 | 0.00 | 0.00 | 32 | 1005.1 |
| 20260503223836 | 71 | 254 | 4.3 | 13.0 | 0.00 | 0.00 | 0.00 | 31 | 1005.1 |
| 20260503223739 | 71 | 355 | 4.3 | 13.0 | 0.00 | 0.00 | 0.00 | 29 | 1005.2 |
| 20260503223606 | 71 | 269 | 5.2 | 13.0 | 0.00 | 0.00 | 0.00 | 29 | 1005.1 |
| 20260503223531 | 70 | 336 | 5.2 | 13.0 | 0.00 | 0.00 | 0.00 | 28 | 1005.1 |
| 20260503223414 | 70 | 321 | 6.1 | 13.0 | 0.00 | 0.00 | 0.00 | 30 | 1005.2 |
| 20260503223318 | 70 | 34 | 7.0 | 13.0 | 0.00 | 0.00 | 0.00 | 27 | 1005.2 |
| 20260503223223 | 70 | 306 | 7.8 | 13.0 | 0.00 | 0.00 | 0.00 | 27 | 1005.3 |
| 20260503223128 | 70 | 341 | 8.7 | 13.0 | 0.00 | 0.00 | 0.00 | 28 | 1005.3 |
| 20260503223005 | 70 | 15 | 9.6 | 13.0 | 0.00 | 0.00 | 0.00 | 28 | 1005.3 |
| 20260503222933 | 70 | 355 | 8.7 | 13.0 | 0.00 | 0.00 | 0.00 | 28 | 1005.3 |
| 20260503222817 | 70 | 346 | 7.0 | 13.0 | 0.00 | 0.00 | 0.00 | 29 | 1005.3 |
| 20260503222721 | 70 | 339 | 7.0 | 13.9 | 0.00 | 0.00 | 0.00 | 29 | 1005.2 |
| 20260503222626 | 70 | 17 | 7.0 | 13.9 | 0.00 | 0.00 | 0.00 | 28 | 1005.3 |
| 20260503222509 | 71 | 27 | 5.2 | 13.9 | 0.00 | 0.00 | 0.00 | 28 | 1005.2 |
| 20260503222414 | 71 | 27 | 5.2 | 13.9 | 0.00 | 0.00 | 0.00 | 29 | 1005.3 |
| 20260503222320 | 71 | 32 | 7.0 | 13.9 | 0.00 | 0.00 | 0.00 | 28 | 1005.3 |
| 20260503222209 | 71 | 315 | 8.7 | 13.9 | 0.00 | 0.00 | 0.00 | 29 | 1005.3 |
| 20260503222113 | 71 | 330 | 9.6 | 13.9 | 0.00 | 0.00 | 0.00 | 30 | 1005.4 |
| 20260503222019 | 71 | 12 | 9.6 | 13.9 | 0.00 | 0.00 | 0.00 | 29 | 1005.3 |
| 20260503221923 | 71 | 346 | 8.7 | 13.9 | 0.00 | 0.00 | 0.00 | 29 | 1005.3 |
| 20260503221827 | 71 | 314 | 7.0 | 11.3 | 0.00 | 0.00 | 0.00 | 29 | 1005.3 |
| 20260503221710 | 71 | 301 | 5.2 | 10.4 | 0.00 | 0.00 | 0.00 | 28 | 1005.2 |
| 20260503221618 | 71 | 348 | 3.5 | 10.4 | 0.00 | 0.00 | 0.00 | 30 | 1005.3 |
| 20260503221541 | 71 | 333 | 3.5 | 10.4 | 0.00 | 0.00 | 0.00 | 30 | 1005.4 |
| 20260503221422 | 71 | 328 | 3.5 | 10.4 | 0.00 | 0.00 | 0.00 | 31 | 1005.3 |
| 20260503221306 | 70 | 348 | 4.3 | 10.4 | 0.00 | 0.00 | 0.00 | 29 | 1005.3 |
| 20260503221209 | 70 | 355 | 6.1 | 10.4 | 0.00 | 0.00 | 0.00 | 29 | 1005.3 |
| 20260503221112 | 70 | 310 | 7.0 | 10.4 | 0.00 | 0.00 | 0.00 | 30 | 1005.4 |
| 20260503221015 | 70 | 331 | 6.1 | 11.3 | 0.00 | 0.00 | 0.00 | 33 | 1005.4 |
| 20260503220922 | 70 | 360 | 6.1 | 11.3 | 0.00 | 0.00 | 0.00 | 30 | 1005.3 |
| 20260503220826 | 70 | 318 | 6.1 | 12.2 | 0.00 | 0.00 | 0.00 | 29 | 1005.4 |
| 20260503220708 | 70 | 360 | 6.1 | 12.2 | 0.00 | 0.00 | 0.00 | 30 | 1005.4 |
| 20260503220612 | 70 | 15 | 4.3 | 12.2 | 0.00 | 0.00 | 0.00 | 31 | 1005.4 |
| 20260503220515 | 70 | 5 | 5.2 | 12.2 | 0.00 | 0.00 | 0.00 | 30 | 1005.4 |
| 20260503220438 | 70 | 19 | 7.0 | 12.2 | 0.00 | 0.00 | 0.00 | 28 | 1005.4 |
| 20260503220319 | 70 | 321 | 7.0 | 12.2 | 0.00 | 0.00 | 0.00 | 29 | 1005.4 |
| 20260503220206 | 70 | 18 | 7.0 | 12.2 | 0.00 | 0.00 | 0.00 | 31 | 1005.4 |
| 20260503220131 | 70 | 44 | 7.0 | 12.2 | 0.00 | 0.00 | 0.00 | 29 | 1005.5 |
| 20260503220007 | 70 | 317 | 7.8 | 12.2 | 0.00 | 0.00 | 0.00 | 29 | 1005.4 |
| 20260503215910 | 70 | 329 | 8.7 | 13.9 | 0.00 | 0.00 | 0.00 | 29 | 1005.5 |
| 20260503215812 | 70 | 333 | 7.8 | 13.9 | 0.00 | 0.00 | 0.00 | 29 | 1005.5 |
| 20260503215716 | 70 | 309 | 7.8 | 13.9 | 0.00 | 0.00 | 0.00 | 28 | 1005.4 |
| 20260503215639 | 70 | 336 | 7.0 | 13.9 | 0.00 | 0.00 | 0.00 | 28 | 1005.5 |
| 20260503215506 | 70 | 335 | 6.1 | 13.9 | 0.00 | 0.00 | 0.00 | 30 | 1005.5 |
| 20260503215408 | 70 | 309 | 7.8 | 13.9 | 0.00 | 0.00 | 0.00 | 27 | 1005.6 |
| 20260503215312 | 70 | 340 | 7.8 | 13.9 | 0.00 | 0.00 | 0.00 | 28 | 1005.5 |
| 20260503215215 | 70 | 5 | 10.4 | 13.9 | 0.00 | 0.00 | 0.00 | 27 | 1005.6 |
| 20260503215117 | 70 | 355 | 8.7 | 15.6 | 0.00 | 0.00 | 0.00 | 28 | 1005.5 |
| 20260503215020 | 70 | 344 | 7.0 | 15.6 | 0.00 | 0.00 | 0.00 | 30 | 1005.6 |
| 20260503214943 | 70 | 355 | 6.1 | 15.6 | 0.00 | 0.00 | 0.00 | 32 | 1005.6 |
| 20260503214848 | 70 | 314 | 7.0 | 15.6 | 0.00 | 0.00 | 0.00 | 29 | 1005.6 |
| 20260503214751 | 70 | 360 | 7.0 | 15.6 | 0.00 | 0.00 | 0.00 | 28 | 1005.5 |
| 20260503214607 | 70 | 360 | 9.6 | 15.6 | 0.00 | 0.00 | 0.00 | 29 | 1005.6 |
| 20260503214511 | 70 | 310 | 8.7 | 15.6 | 0.00 | 0.00 | 0.00 | 30 | 1005.6 |
| 20260503214413 | 70 | 292 | 8.7 | 15.6 | 0.00 | 0.00 | 0.00 | 29 | 1005.6 |
| 20260503214316 | 70 | 355 | 8.7 | 15.6 | 0.00 | 0.00 | 0.00 | 28 | 1005.6 |
| 20260503214219 | 70 | 338 | 7.0 | 13.0 | 0.00 | 0.00 | 0.00 | 30 | 1005.6 |
| 20260503214106 | 70 | 339 | 5.2 | 13.0 | 0.00 | 0.00 | 0.00 | 30 | 1005.5 |
| 20260503214009 | 70 | 31 | 7.8 | 13.0 | 0.00 | 0.00 | 0.00 | 29 | 1005.6 |
| 20260503213914 | 70 | 12 | 9.6 | 13.0 | 0.00 | 0.00 | 0.00 | 28 | 1005.6 |
| 20260503213817 | 70 | 345 | 9.6 | 13.0 | 0.00 | 0.00 | 0.00 | 28 | 1005.7 |
| 20260503213720 | 70 | 344 | 9.6 | 13.0 | 0.00 | 0.00 | 0.00 | 31 | 1005.7 |
| 20260503213607 | 70 | 340 | 8.7 | 12.2 | 0.00 | 0.00 | 0.00 | 28 | 1005.7 |
| 20260503213509 | 70 | 355 | 7.8 | 13.9 | 0.00 | 0.00 | 0.00 | 29 | 1005.7 |
| 20260503213411 | 70 | 17 | 7.8 | 13.9 | 0.00 | 0.00 | 0.00 | 29 | 1005.7 |
| 20260503213315 | 70 | 360 | 7.0 | 13.9 | 0.00 | 0.00 | 0.00 | 29 | 1005.7 |
| 20260503213218 | 70 | 5 | 6.1 | 13.9 | 0.00 | 0.00 | 0.00 | 30 | 1005.7 |
| 20260503213122 | 70 | 37 | 6.1 | 13.9 | 0.00 | 0.00 | 0.00 | 28 | 1005.7 |
| 20260503213009 | 70 | 18 | 6.1 | 13.9 | 0.00 | 0.00 | 0.00 | 30 | 1005.8 |
| 20260503212933 | 70 | 42 | 5.2 | 13.9 | 0.00 | 0.00 | 0.00 | 31 | 1005.8 |
| 20260503212815 | 70 | 10 | 6.1 | 13.9 | 0.00 | 0.00 | 0.00 | 29 | 1005.8 |
| 20260503212719 | 70 | 315 | 7.8 | 13.9 | 0.00 | 0.00 | 0.00 | 30 | 1005.7 |
| 20260503212623 | 70 | 324 | 7.8 | 15.6 | 0.00 | 0.00 | 0.00 | 29 | 1005.8 |
| 20260503212506 | 70 | 329 | 7.0 | 15.6 | 0.00 | 0.00 | 0.00 | 30 | 1005.9 |
| 20260503212410 | 70 | 5 | 7.0 | 15.6 | 0.00 | 0.00 | 0.00 | 30 | 1005.8 |
| 20260503212338 | 70 | 346 | 8.7 | 15.6 | 0.00 | 0.00 | 0.00 | 30 | 1005.7 |
| 20260503212220 | 70 | 299 | 8.7 | 15.6 | 0.00 | 0.00 | 0.00 | 31 | 1005.7 |
| 20260503212143 | 70 | 304 | 7.0 | 15.6 | 0.00 | 0.00 | 0.00 | 29 | 1005.8 |
| 20260503212006 | 70 | 327 | 7.8 | 15.6 | 0.00 | 0.00 | 0.00 | 29 | 1005.9 |
| 20260503211909 | 70 | 18 | 10.4 | 15.6 | 0.00 | 0.00 | 0.00 | 30 | 1005.9 |
| 20260503211812 | 70 | 5 | 9.6 | 15.6 | 0.00 | 0.00 | 0.00 | 30 | 1006.0 |
| 20260503211716 | 70 | 360 | 8.7 | 13.0 | 0.00 | 0.00 | 0.00 | 28 | 1006.0 |
| 20260503211623 | 70 | 345 | 7.0 | 13.0 | 0.00 | 0.00 | 0.00 | 29 | 1005.9 |
| 20260503211506 | 70 | 11 | 4.3 | 13.0 | 0.00 | 0.00 | 0.00 | 30 | 1005.9 |
| 20260503211410 | 70 | 324 | 5.2 | 13.0 | 0.00 | 0.00 | 0.00 | 28 | 1005.9 |
| 20260503211314 | 69 | 345 | 7.0 | 13.0 | 0.00 | 0.00 | 0.00 | 28 | 1005.9 |
| 20260503211217 | 69 | 343 | 7.0 | 13.0 | 0.00 | 0.00 | 0.00 | 31 | 1005.9 |
| 20260503211142 | 69 | 343 | 7.8 | 13.0 | 0.00 | 0.00 | 0.00 | 28 | 1005.9 |
| 20260503211009 | 69 | 360 | 7.8 | 13.9 | 0.00 | 0.00 | 0.00 | 30 | 1005.9 |
| 20260503210914 | 69 | 323 | 7.0 | 13.9 | 0.00 | 0.00 | 0.00 | 29 | 1005.9 |
| 20260503210838 | 69 | 360 | 7.8 | 18.2 | 0.00 | 0.00 | 0.00 | 28 | 1005.9 |
| 20260503210722 | 69 | 311 | 7.8 | 18.2 | 0.00 | 0.00 | 0.00 | 29 | 1005.9 |
| 20260503210626 | 69 | 290 | 7.8 | 18.2 | 0.00 | 0.00 | 0.00 | 30 | 1005.9 |
| 20260503210509 | 69 | 331 | 8.7 | 18.2 | 0.00 | 0.00 | 0.00 | 31 | 1005.9 |
| 20260503210412 | 69 | 320 | 7.8 | 18.2 | 0.00 | 0.00 | 0.00 | 29 | 1005.9 |
| 20260503210321 | 69 | 31 | 7.8 | 18.2 | 0.00 | 0.00 | 0.00 | 30 | 1005.9 |
| 20260503210206 | 69 | 55 | 10.4 | 18.2 | 0.00 | 0.00 | 0.00 | 28 | 1006.0 |
| 20260503210111 | 69 | 25 | 9.6 | 18.2 | 0.00 | 0.00 | 0.00 | 28 | 1006.0 |
| 20260503210016 | 69 | 348 | 7.8 | 18.2 | 0.00 | 0.00 | 0.00 | 29 | 1006.0 |
| 20260503205920 | 69 | 20 | 7.8 | 14.8 | 0.00 | 0.00 | 0.00 | 28 | 1005.9 |
| 20260503205824 | 69 | 300 | 8.7 | 14.8 | 0.00 | 0.00 | 0.00 | 29 | 1006.0 |
| 20260503205752 | 69 | 326 | 9.6 | 14.8 | 0.00 | 0.00 | 0.00 | 31 | 1006.0 |
| 20260503205607 | 69 | 306 | 10.4 | 14.8 | 0.00 | 0.00 | 0.00 | 31 | 1006.0 |
| 20260503205512 | 69 | 360 | 9.6 | 14.8 | 0.00 | 0.00 | 0.00 | 30 | 1005.9 |
| 20260503205415 | 69 | 321 | 9.6 | 14.8 | 0.00 | 0.00 | 0.00 | 28 | 1005.9 |
| 20260503205320 | 70 | 294 | 9.6 | 14.8 | 0.00 | 0.00 | 0.00 | 29 | 1005.9 |
| 20260503205223 | 70 | 301 | 9.6 | 14.8 | 0.00 | 0.00 | 0.00 | 30 | 1006.1 |
| 20260503205111 | 69 | 314 | 7.8 | 15.6 | 0.00 | 0.00 | 0.00 | 32 | 1006.0 |
| 20260503205016 | 69 | 5 | 7.0 | 15.6 | 0.00 | 0.00 | 0.00 | 32 | 1006.1 |
| 20260503204920 | 69 | 308 | 7.8 | 15.6 | 0.00 | 0.00 | 0.00 | 34 | 1006.0 |
| 20260503204805 | 69 | 333 | 10.4 | 15.6 | 0.00 | 0.00 | 0.00 | 28 | 1006.1 |
| 20260503204709 | 69 | 5 | 10.4 | 15.6 | 0.00 | 0.00 | 0.00 | 28 | 1006.2 |
| 20260503204614 | 69 | 355 | 10.4 | 15.6 | 0.00 | 0.00 | 0.00 | 30 | 1006.2 |
| 20260503204521 | 69 | 342 | 10.4 | 15.6 | 0.00 | 0.00 | 0.00 | 28 | 1006.0 |
| 20260503204406 | 69 | 303 | 10.4 | 15.6 | 0.00 | 0.00 | 0.00 | 29 | 1006.0 |
| 20260503204310 | 69 | 322 | 10.4 | 15.6 | 0.00 | 0.00 | 0.00 | 28 | 1006.0 |
| 20260503204214 | 69 | 305 | 7.8 | 20.0 | 0.00 | 0.00 | 0.00 | 30 | 1006.1 |
| 20260503204118 | 69 | 330 | 7.0 | 20.0 | 0.00 | 0.00 | 0.00 | 28 | 1006.1 |
| 20260503204021 | 69 | 349 | 7.0 | 20.9 | 0.00 | 0.00 | 0.00 | 29 | 1006.1 |
| 20260503203928 | 69 | 343 | 7.0 | 20.9 | 0.00 | 0.00 | 0.00 | 29 | 1006.1 |
| 20260503203805 | 69 | 348 | 8.7 | 20.9 | 0.00 | 0.00 | 0.00 | 28 | 1006.1 |
| 20260503203709 | 69 | 334 | 10.4 | 20.9 | 0.00 | 0.00 | 0.00 | 29 | 1006.1 |
| 20260503203614 | 69 | 331 | 11.3 | 20.9 | 0.00 | 0.00 | 0.00 | 31 | 1006.1 |
| 20260503203519 | 69 | 340 | 11.3 | 20.9 | 0.00 | 0.00 | 0.00 | 29 | 1006.1 |
| 20260503203424 | 69 | 355 | 11.3 | 20.9 | 0.00 | 0.00 | 0.00 | 30 | 1006.0 |
| 20260503203311 | 69 | 298 | 12.2 | 20.9 | 0.00 | 0.00 | 0.00 | 30 | 1006.0 |
| 20260503203236 | 69 | 308 | 9.6 | 20.9 | 0.00 | 0.00 | 0.00 | 28 | 1006.0 |
| 20260503203120 | 69 | 298 | 7.8 | 15.6 | 0.00 | 0.00 | 0.00 | 29 | 1006.0 |
| 20260503203005 | 69 | 355 | 7.8 | 15.6 | 0.00 | 0.00 | 0.00 | 27 | 1006.1 |
| 20260503202929 | 69 | 350 | 9.6 | 15.6 | 0.00 | 0.00 | 0.00 | 27 | 1006.2 |
| 20260503202812 | 69 | 5 | 10.4 | 15.6 | 0.00 | 0.00 | 0.00 | 29 | 1006.2 |
| 20260503202737 | 69 | 355 | 11.3 | 15.6 | 0.00 | 0.00 | 0.00 | 28 | 1006.3 |
| 20260503202624 | 69 | 348 | 11.3 | 15.6 | 0.00 | 0.00 | 0.00 | 31 | 1006.0 |
| 20260503202508 | 69 | 338 | 10.4 | 14.8 | 0.00 | 0.00 | 0.00 | 28 | 1006.2 |
| 20260503202411 | 69 | 355 | 9.6 | 13.9 | 0.00 | 0.00 | 0.00 | 30 | 1006.1 |
| 20260503202315 | 69 | 9 | 8.7 | 13.9 | 0.00 | 0.00 | 0.00 | 28 | 1006.1 |
| 20260503202239 | 69 | 23 | 7.0 | 13.9 | 0.00 | 0.00 | 0.00 | 29 | 1006.1 |
| 20260503202122 | 69 | 14 | 6.1 | 13.0 | 0.00 | 0.00 | 0.00 | 29 | 1006.2 |
| 20260503202010 | 69 | 5 | 7.8 | 13.0 | 0.00 | 0.00 | 0.00 | 28 | 1006.1 |
| 20260503201915 | 69 | 346 | 8.7 | 13.0 | 0.00 | 0.00 | 0.00 | 29 | 1006.2 |
| 20260503201818 | 69 | 9 | 7.8 | 13.0 | 0.00 | 0.00 | 0.00 | 28 | 1006.2 |
| 20260503201722 | 70 | 26 | 7.8 | 12.2 | 0.00 | 0.00 | 0.00 | 30 | 1006.2 |
| 20260503201606 | 69 | 12 | 8.7 | 12.2 | 0.00 | 0.00 | 0.00 | 29 | 1006.2 |
| 20260503201530 | 69 | 33 | 7.8 | 12.2 | 0.00 | 0.00 | 0.00 | 32 | 1006.3 |
| 20260503201414 | 69 | 360 | 7.8 | 11.3 | 0.00 | 0.00 | 0.00 | 31 | 1006.3 |
| 20260503201322 | 69 | 328 | 7.8 | 11.3 | 0.00 | 0.00 | 0.00 | 29 | 1006.2 |
| 20260503201226 | 69 | 360 | 7.0 | 12.2 | 0.00 | 0.00 | 0.00 | 30 | 1006.2 |
| 20260503201109 | 69 | 11 | 7.0 | 12.2 | 0.00 | 0.00 | 0.00 | 28 | 1006.2 |
| 20260503201014 | 69 | 23 | 7.0 | 14.8 | 0.00 | 0.00 | 0.00 | 28 | 1006.2 |
| 20260503200919 | 69 | 43 | 7.0 | 14.8 | 0.00 | 0.00 | 0.00 | 29 | 1006.3 |
| 20260503200823 | 69 | 5 | 5.2 | 14.8 | 0.00 | 0.00 | 0.00 | 28 | 1006.2 |
| 20260503200731 | 69 | 14 | 4.3 | 14.8 | 0.00 | 0.00 | 0.00 | 30 | 1006.2 |
| 20260503200614 | 69 | 313 | 5.2 | 14.8 | 0.00 | 0.00 | 0.00 | 32 | 1006.2 |
| 20260503200519 | 69 | 360 | 7.0 | 14.8 | 0.00 | 0.00 | 0.00 | 30 | 1006.2 |
| 20260503200422 | 69 | 50 | 7.8 | 14.8 | 0.00 | 0.00 | 0.00 | 30 | 1006.3 |
| 20260503200327 | 70 | 53 | 7.0 | 14.8 | 0.00 | 0.00 | 0.00 | 30 | 1006.3 |
| 20260503200229 | 69 | 346 | 5.2 | 14.8 | 0.00 | 0.00 | 0.00 | 34 | 1006.3 |
| 20260503200133 | 69 | 285 | 4.3 | 12.2 | 0.00 | 0.00 | 0.00 | 32 | 1006.2 |
| 20260503200015 | 69 | 329 | 6.1 | 12.2 | 0.00 | 0.00 | 0.00 | 31 | 1006.3 |
| 20260503195923 | 69 | 339 | 5.2 | 12.2 | 0.00 | 0.00 | 0.00 | 30 | 1006.3 |
| 20260503195807 | 69 | 339 | 5.2 | 18.2 | 0.00 | 0.00 | 0.00 | 31 | 1006.3 |
| 20260503195732 | 69 | 304 | 6.1 | 18.2 | 0.00 | 0.00 | 0.00 | 30 | 1006.3 |
| 20260503195615 | 69 | 333 | 7.0 | 18.2 | 0.00 | 0.00 | 0.00 | 30 | 1006.3 |
| 20260503195520 | 69 | 329 | 7.8 | 18.2 | 0.00 | 0.00 | 0.00 | 30 | 1006.3 |
| 20260503195405 | 69 | 344 | 7.8 | 18.2 | 0.00 | 0.00 | 0.00 | 29 | 1006.4 |
| 20260503195329 | 69 | 355 | 7.8 | 18.2 | 0.00 | 0.00 | 0.00 | 31 | 1006.4 |
| 20260503195216 | 69 | 347 | 7.8 | 18.2 | 0.00 | 0.00 | 0.00 | 31 | 1006.3 |
| 20260503195140 | 69 | 360 | 9.6 | 18.2 | 0.00 | 0.00 | 0.00 | 33 | 1006.4 |
| 20260503195004 | 69 | 321 | 8.7 | 18.2 | 0.00 | 0.00 | 0.00 | 33 | 1006.3 |
| 20260503194909 | 69 | 329 | 7.0 | 14.8 | 0.00 | 0.00 | 0.00 | 33 | 1006.3 |
| 20260503194833 | 69 | 299 | 6.1 | 14.8 | 0.00 | 0.00 | 0.00 | 37 | 1006.3 |
| 20260503194716 | 69 | 308 | 7.0 | 15.6 | 0.00 | 0.00 | 0.00 | 35 | 1006.4 |
| 20260503194619 | 69 | 330 | 7.8 | 15.6 | 0.00 | 0.00 | 0.00 | 33 | 1006.3 |
| 20260503194507 | 69 | 337 | 8.7 | 15.6 | 0.00 | 0.00 | 0.00 | 36 | 1006.3 |
| 20260503194412 | 70 | 303 | 7.0 | 15.6 | 0.00 | 0.00 | 0.00 | 37 | 1006.3 |
| 20260503194316 | 70 | 331 | 7.0 | 15.6 | 0.00 | 0.00 | 0.00 | 35 | 1006.4 |
| 20260503194241 | 70 | 300 | 9.6 | 15.6 | 0.00 | 0.00 | 0.00 | 31 | 1006.3 |
| 20260503194104 | 70 | 351 | 8.7 | 15.6 | 0.00 | 0.00 | 0.00 | 32 | 1006.4 |
| 20260503194008 | 69 | 348 | 7.8 | 15.6 | 0.00 | 0.00 | 0.00 | 36 | 1006.3 |
| 20260503193917 | 69 | 355 | 7.8 | 15.6 | 0.00 | 0.00 | 0.00 | 37 | 1006.4 |
| 20260503193821 | 69 | 9 | 5.2 | 15.6 | 0.00 | 0.00 | 0.00 | 35 | 1006.3 |
| 20260503193706 | 69 | 5 | 5.2 | 10.4 | 0.00 | 0.00 | 0.00 | 34 | 1006.3 |
| 20260503193630 | 69 | 331 | 7.0 | 10.4 | 0.00 | 0.00 | 0.00 | 32 | 1006.3 |
| 20260503193507 | 69 | 12 | 7.8 | 10.4 | 0.00 | 0.00 | 0.00 | 31 | 1006.4 |
| 20260503193411 | 69 | 328 | 7.0 | 10.4 | 0.00 | 0.00 | 0.00 | 32 | 1006.4 |
| 20260503193319 | 69 | 5 | 7.0 | 12.2 | 0.00 | 0.00 | 0.00 | 33 | 1006.3 |
| 20260503193223 | 69 | 25 | 7.0 | 12.2 | 0.00 | 0.00 | 0.00 | 32 | 1006.4 |
| 20260503193107 | 70 | 32 | 6.1 | 12.2 | 0.00 | 0.00 | 0.00 | 32 | 1006.4 |
| 20260503193030 | 70 | 360 | 5.2 | 12.2 | 0.00 | 0.00 | 0.00 | 31 | 1006.4 |
| 20260503192912 | 69 | 28 | 5.2 | 13.9 | 0.00 | 0.00 | 0.00 | 32 | 1006.5 |
| 20260503192817 | 69 | 30 | 7.8 | 13.9 | 0.00 | 0.00 | 0.00 | 31 | 1006.5 |
| 20260503192705 | 69 | 5 | 7.8 | 14.8 | 0.00 | 0.00 | 0.00 | 32 | 1006.6 |
| 20260503192631 | 69 | 350 | 8.7 | 14.8 | 0.00 | 0.00 | 0.00 | 32 | 1006.5 |
| 20260503192506 | 69 | 339 | 7.0 | 17.4 | 0.00 | 0.00 | 0.00 | 31 | 1006.5 |
| 20260503192411 | 69 | 328 | 6.1 | 17.4 | 0.00 | 0.00 | 0.00 | 33 | 1006.6 |
| 20260503192314 | 69 | 312 | 6.1 | 17.4 | 0.00 | 0.00 | 0.00 | 31 | 1006.6 |
| 20260503192238 | 69 | 335 | 7.8 | 17.4 | 0.00 | 0.00 | 0.00 | 32 | 1006.6 |
| 20260503192121 | 69 | 312 | 10.4 | 17.4 | 0.00 | 0.00 | 0.00 | 30 | 1006.7 |
| 20260503192009 | 69 | 334 | 11.3 | 17.4 | 0.00 | 0.00 | 0.00 | 29 | 1006.7 |
| 20260503191913 | 69 | 26 | 10.4 | 17.4 | 0.00 | 0.00 | 0.00 | 31 | 1006.8 |
| 20260503191817 | 69 | 349 | 10.4 | 17.4 | 0.00 | 0.00 | 0.00 | 30 | 1006.7 |
| 20260503191722 | 69 | 5 | 10.4 | 17.4 | 0.00 | 0.00 | 0.00 | 32 | 1006.8 |
| 20260503191607 | 69 | 5 | 9.6 | 15.6 | 0.00 | 0.00 | 0.00 | 32 | 1006.8 |
| 20260503191532 | 69 | 360 | 9.6 | 16.5 | 0.00 | 0.00 | 0.00 | 29 | 1006.8 |
| 20260503191419 | 69 | 360 | 9.6 | 16.5 | 0.00 | 0.00 | 0.00 | 29 | 1006.8 |
| 20260503191323 | 69 | 331 | 9.6 | 16.5 | 0.00 | 0.00 | 0.00 | 30 | 1006.7 |
| 20260503191228 | 69 | 25 | 10.4 | 16.5 | 0.00 | 0.00 | 0.00 | 29 | 1006.8 |
| 20260503191131 | 69 | 329 | 11.3 | 16.5 | 0.00 | 0.00 | 0.00 | 29 | 1006.7 |
| 20260503191035 | 69 | 350 | 11.3 | 16.5 | 0.00 | 0.00 | 0.00 | 30 | 1006.7 |
| 20260503190919 | 69 | 360 | 9.6 | 16.5 | 0.00 | 0.00 | 0.00 | 30 | 1006.7 |
| 20260503190843 | 69 | 341 | 11.3 | 16.5 | 0.00 | 0.00 | 0.00 | 28 | 1006.9 |
| 20260503190725 | 69 | 338 | 9.6 | 15.6 | 0.00 | 0.00 | 0.00 | 31 | 1006.7 |
| 20260503190612 | 69 | 360 | 7.8 | 14.8 | 0.00 | 0.00 | 0.00 | 32 | 1006.9 |
| 20260503190516 | 69 | 10 | 7.8 | 14.8 | 0.00 | 0.00 | 0.00 | 30 | 1006.8 |
| 20260503190421 | 69 | 5 | 8.7 | 14.8 | 0.00 | 0.00 | 0.00 | 32 | 1006.6 |
| 20260503190325 | 69 | 20 | 9.6 | 14.8 | 0.00 | 0.00 | 0.00 | 33 | 1006.8 |
| 20260503190249 | 69 | 355 | 10.4 | 17.4 | 0.00 | 0.00 | 0.00 | 31 | 1007.0 |
| 20260503190105 | 69 | 26 | 8.7 | 17.4 | 0.00 | 0.00 | 0.00 | 31 | 1006.8 |
| 20260503190009 | 69 | 309 | 9.6 | 17.4 | 0.00 | 0.00 | 0.00 | 31 | 1006.7 |
| 20260503185918 | 69 | 9 | 10.4 | 17.4 | 0.00 | 0.00 | 0.00 | 30 | 1006.7 |
| 20260503185819 | 69 | 345 | 9.6 | 17.4 | 0.00 | 0.00 | 0.00 | 31 | 1006.8 |
| 20260503185704 | 69 | 347 | 8.7 | 17.4 | 0.00 | 0.00 | 0.00 | 31 | 1006.9 |
| 20260503185609 | 69 | 15 | 9.6 | 17.4 | 0.00 | 0.00 | 0.00 | 33 | 1006.8 |
| 20260503185514 | 69 | 355 | 10.4 | 17.4 | 0.00 | 0.00 | 0.00 | 33 | 1006.9 |
| 20260503185417 | 69 | 343 | 8.7 | 17.4 | 0.00 | 0.00 | 0.00 | 33 | 1006.8 |
| 20260503185344 | 69 | 331 | 8.7 | 13.9 | 0.00 | 0.00 | 0.00 | 33 | 1006.8 |
| 20260503185228 | 69 | 344 | 8.7 | 13.9 | 0.00 | 0.00 | 0.00 | 31 | 1006.9 |
| 20260503185130 | 69 | 348 | 7.0 | 13.9 | 0.00 | 0.00 | 0.00 | 34 | 1006.7 |
| 20260503185014 | 68 | 355 | 4.3 | 13.9 | 0.00 | 0.00 | 0.00 | 34 | 1006.7 |
| 20260503184919 | 68 | 17 | 5.2 | 14.8 | 0.00 | 0.00 | 0.00 | 35 | 1006.7 |
| 20260503184805 | 68 | 300 | 8.7 | 14.8 | 0.00 | 0.00 | 0.00 | 31 | 1006.8 |
| 20260503184709 | 69 | 346 | 9.6 | 14.8 | 0.00 | 0.00 | 0.00 | 30 | 1006.7 |
| 20260503184618 | 69 | 331 | 9.6 | 14.8 | 0.00 | 0.00 | 0.00 | 32 | 1006.8 |
| 20260503184504 | 69 | 355 | 10.4 | 14.8 | 0.00 | 0.00 | 0.00 | 33 | 1006.7 |
| 20260503184430 | 69 | 329 | 10.4 | 14.8 | 0.00 | 0.00 | 0.00 | 34 | 1006.8 |
| 20260503184313 | 69 | 344 | 8.7 | 14.8 | 0.00 | 0.00 | 0.00 | 33 | 1006.8 |
| 20260503184216 | 68 | 348 | 8.7 | 16.5 | 0.00 | 0.00 | 0.00 | 34 | 1006.8 |
| 20260503184138 | 68 | 314 | 8.7 | 16.5 | 0.00 | 0.00 | 0.00 | 32 | 1006.8 |
| 20260503184006 | 68 | 340 | 7.8 | 16.5 | 0.00 | 0.00 | 0.00 | 33 | 1006.7 |
| 20260503183912 | 68 | 10 | 8.7 | 16.5 | 0.00 | 0.00 | 0.00 | 33 | 1006.8 |
| 20260503183816 | 68 | 5 | 7.8 | 16.5 | 0.00 | 0.00 | 0.00 | 33 | 1006.8 |
| 20260503183741 | 68 | 5 | 5.2 | 16.5 | 0.00 | 0.00 | 0.00 | 35 | 1006.8 |
| 20260503183605 | 68 | 20 | 7.8 | 16.5 | 0.00 | 0.00 | 0.00 | 33 | 1006.9 |
| 20260503183510 | 68 | 44 | 10.4 | 16.5 | 0.00 | 0.00 | 0.00 | 34 | 1007.0 |
| 20260503183324 | 68 | 360 | 5.2 | 15.6 | 0.00 | 0.00 | 0.00 | 32 | 1006.9 |
| 20260503183207 | 68 | 44 | 8.7 | 15.6 | 0.00 | 0.00 | 0.00 | 33 | 1007.0 |
| 20260503183112 | 68 | 12 | 7.8 | 15.6 | 0.00 | 0.00 | 0.00 | 31 | 1006.8 |
| 20260503183036 | 68 | 22 | 7.8 | 15.6 | 0.00 | 0.00 | 0.00 | 33 | 1006.8 |
| 20260503182919 | 68 | 49 | 8.7 | 15.6 | 0.00 | 0.00 | 0.00 | 33 | 1006.8 |
| 20260503182843 | 68 | 24 | 9.6 | 15.6 | 0.00 | 0.00 | 0.00 | 33 | 1006.9 |
| 20260503182727 | 68 | 18 | 8.7 | 15.6 | 0.00 | 0.00 | 0.00 | 36 | 1007.0 |
| 20260503182613 | 68 | 22 | 7.8 | 15.6 | 0.00 | 0.00 | 0.00 | 34 | 1006.9 |
| 20260503182517 | 68 | 42 | 8.7 | 15.6 | 0.00 | 0.00 | 0.00 | 35 | 1007.0 |
| 20260503182422 | 68 | 14 | 7.8 | 15.6 | 0.00 | 0.00 | 0.00 | 34 | 1006.9 |
| 20260503182326 | 68 | 5 | 7.0 | 15.6 | 0.00 | 0.00 | 0.00 | 35 | 1006.9 |
| 20260503182208 | 68 | 346 | 7.0 | 15.6 | 0.00 | 0.00 | 0.00 | 36 | 1006.9 |
| 20260503182114 | 68 | 61 | 8.7 | 15.6 | 0.00 | 0.00 | 0.00 | 36 | 1007.0 |
| 20260503182038 | 68 | 13 | 9.6 | 15.6 | 0.00 | 0.00 | 0.00 | 33 | 1007.1 |
| 20260503181905 | 68 | 32 | 10.4 | 18.2 | 0.00 | 0.00 | 0.00 | 35 | 1007.1 |
| 20260503181809 | 68 | 34 | 10.4 | 18.2 | 0.00 | 0.00 | 0.00 | 36 | 1007.6 |
| 20260503181713 | 68 | 344 | 10.4 | 18.2 | 0.00 | 0.00 | 0.00 | 36 | 1007.0 |
| 20260503181617 | 68 | 47 | 8.7 | 18.2 | 0.00 | 0.00 | 0.00 | 37 | 1007.1 |
| 20260503181520 | 68 | 26 | 7.8 | 18.2 | 0.00 | 0.00 | 0.00 | 38 | 1007.3 |
| 20260503181410 | 68 | 15 | 8.7 | 18.2 | 0.00 | 0.00 | 0.00 | 37 | 1007.2 |
| 20260503181313 | 68 | 344 | 10.4 | 18.2 | 0.00 | 0.00 | 0.00 | 35 | 1007.1 |
| 20260503181217 | 68 | 360 | 12.2 | 18.2 | 0.00 | 0.00 | 0.00 | 35 | 1007.2 |
| 20260503181122 | 68 | 5 | 12.2 | 18.2 | 0.00 | 0.00 | 0.00 | 34 | 1007.2 |
| 20260503181006 | 68 | 360 | 12.2 | 18.2 | 0.00 | 0.00 | 0.00 | 35 | 1007.2 |
| 20260503180910 | 68 | 355 | 13.0 | 18.2 | 0.00 | 0.00 | 0.00 | 35 | 1007.1 |
| 20260503180834 | 68 | 360 | 11.3 | 18.2 | 0.00 | 0.00 | 0.00 | 36 | 1007.0 |
| 20260503180741 | 68 | 340 | 8.7 | 18.2 | 0.00 | 0.00 | 0.00 | 37 | 1007.4 |
| 20260503180604 | 68 | 338 | 7.0 | 13.9 | 0.00 | 0.00 | 0.00 | 39 | 1007.0 |
| 20260503180528 | 68 | 331 | 7.8 | 13.9 | 0.00 | 0.00 | 0.00 | 39 | 1007.0 |
| 20260503180411 | 68 | 25 | 9.6 | 13.9 | 0.00 | 0.00 | 0.00 | 41 | 1007.2 |
| 20260503180316 | 68 | 347 | 10.4 | 13.9 | 0.00 | 0.00 | 0.00 | 40 | 1007.1 |
| 20260503180221 | 68 | 349 | 8.7 | 13.0 | 0.00 | 0.00 | 0.00 | 43 | 1007.0 |
| 20260503180145 | 68 | 39 | 9.6 | 13.0 | 0.00 | 0.00 | 0.00 | 41 | 1007.0 |
| 20260503180031 | 68 | 350 | 10.4 | 13.0 | 0.00 | 0.00 | 0.00 | 41 | 1007.4 |
| 20260503175906 | 68 | 21 | 8.7 | 13.0 | 0.00 | 0.00 | 0.00 | 44 | 1007.0 |
| 20260503175811 | 68 | 5 | 7.8 | 11.3 | 0.00 | 0.00 | 0.00 | 44 | 1007.0 |
| 20260503175715 | 68 | 360 | 5.2 | 11.3 | 0.00 | 0.00 | 0.00 | 45 | 1007.1 |
| 20260503175640 | 68 | 331 | 5.2 | 11.3 | 0.00 | 0.00 | 0.00 | 44 | 1007.0 |
| 20260503175504 | 68 | 338 | 5.2 | 11.3 | 0.00 | 0.00 | 0.00 | 44 | 1006.9 |
| 20260503175412 | 68 | 249 | 5.2 | 11.3 | 0.00 | 0.00 | 0.00 | 43 | 1006.9 |
| 20260503175337 | 68 | 360 | 5.2 | 13.9 | 0.00 | 0.00 | 0.00 | 46 | 1007.0 |
| 20260503175220 | 68 | 330 | 7.0 | 13.9 | 0.00 | 0.00 | 0.00 | 44 | 1007.1 |
| 20260503175104 | 67 | 333 | 7.0 | 13.9 | 0.00 | 0.00 | 0.00 | 45 | 1007.1 |
| 20260503175028 | 67 | 42 | 6.1 | 13.9 | 0.00 | 0.00 | 0.00 | 44 | 1007.0 |
| 20260503174911 | 67 | 39 | 6.1 | 13.9 | 0.00 | 0.00 | 0.00 | 44 | 1007.3 |
| 20260503174817 | 67 | 76 | 5.2 | 13.9 | 0.00 | 0.00 | 0.00 | 44 | 1007.1 |
| 20260503174705 | 67 | 30 | 7.8 | 13.9 | 0.00 | 0.00 | 0.00 | 43 | 1007.2 |
| 20260503174629 | 67 | 355 | 9.6 | 13.9 | 0.00 | 0.00 | 0.00 | 43 | 1007.2 |
| 20260503174507 | 67 | 334 | 6.1 | 13.0 | 0.00 | 0.00 | 0.00 | 44 | 1007.0 |
| 20260503174410 | 67 | 77 | 4.3 | 11.3 | 0.00 | 0.00 | 0.00 | 42 | 1007.1 |
| 20260503174316 | 68 | 44 | 4.3 | 11.3 | 0.00 | 0.00 | 0.00 | 43 | 1007.1 |
| 20260503174240 | 68 | 32 | 5.2 | 11.3 | 0.00 | 0.00 | 0.00 | 43 | 1007.0 |
| 20260503174142 | 68 | 26 | 7.0 | 11.3 | 0.00 | 0.00 | 0.00 | 48 | 1007.2 |
| 20260503174010 | 68 | 360 | 7.0 | 13.0 | 0.00 | 0.00 | 0.00 | 46 | 1007.2 |
| 20260503173914 | 67 | 32 | 5.2 | 13.0 | 0.00 | 0.00 | 0.00 | 46 | 1007.1 |
| 20260503173818 | 67 | 355 | 4.3 | 13.0 | 0.00 | 0.00 | 0.00 | 44 | 1007.1 |
| 20260503173722 | 67 | 9 | 5.2 | 13.9 | 0.00 | 0.00 | 0.00 | 45 | 1007.1 |
| 20260503173626 | 67 | 320 | 7.0 | 13.9 | 0.00 | 0.00 | 0.00 | 44 | 1007.1 |
| 20260503173551 | 67 | 342 | 6.1 | 13.9 | 0.00 | 0.00 | 0.00 | 47 | 1007.2 |
| 20260503173407 | 67 | 345 | 6.1 | 13.9 | 0.00 | 0.00 | 0.00 | 45 | 1007.1 |
| 20260503173315 | 67 | 51 | 7.8 | 13.9 | 0.00 | 0.00 | 0.00 | 43 | 1007.2 |
| 20260503173220 | 67 | 42 | 7.0 | 13.9 | 0.00 | 0.00 | 0.00 | 42 | 1007.3 |
| 20260503173123 | 67 | 5 | 6.1 | 13.9 | 0.00 | 0.00 | 0.00 | 45 | 1007.3 |
| 20260503173005 | 67 | 5 | 9.6 | 13.9 | 0.00 | 0.00 | 0.00 | 42 | 1007.3 |
| 20260503172909 | 67 | 18 | 10.4 | 13.9 | 0.00 | 0.00 | 0.00 | 42 | 1007.3 |
| 20260503172815 | 67 | 26 | 8.7 | 13.9 | 0.00 | 0.00 | 0.00 | 46 | 1007.6 |
| 20260503172723 | 67 | 42 | 6.1 | 12.2 | 0.00 | 0.00 | 0.00 | 46 | 1007.3 |
| 20260503172628 | 67 | 32 | 5.2 | 13.0 | 0.00 | 0.00 | 0.00 | 48 | 1007.3 |
| 20260503172512 | 67 | 38 | 6.1 | 14.8 | 0.00 | 0.00 | 0.00 | 46 | 1007.4 |
| 20260503172417 | 67 | 17 | 7.0 | 14.8 | 0.00 | 0.00 | 0.00 | 45 | 1007.5 |
| 20260503172322 | 67 | 48 | 7.8 | 14.8 | 0.00 | 0.00 | 0.00 | 45 | 1007.5 |
| 20260503172207 | 67 | 28 | 7.8 | 14.8 | 0.00 | 0.00 | 0.00 | 44 | 1007.5 |
| 20260503172116 | 67 | 29 | 7.0 | 14.8 | 0.00 | 0.00 | 0.00 | 45 | 1007.4 |
| 20260503172022 | 66 | 44 | 7.8 | 14.8 | 0.00 | 0.00 | 0.00 | 42 | 1007.5 |
| 20260503171907 | 66 | 30 | 9.6 | 14.8 | 0.00 | 0.00 | 0.00 | 43 | 1007.6 |
| 20260503171812 | 66 | 32 | 10.4 | 14.8 | 0.00 | 0.00 | 0.00 | 45 | 1007.5 |
| 20260503171718 | 66 | 345 | 10.4 | 14.8 | 0.00 | 0.00 | 0.00 | 45 | 1007.7 |
| 20260503171622 | 66 | 76 | 8.7 | 13.0 | 0.00 | 0.00 | 0.00 | 44 | 1007.5 |
| 20260503171512 | 66 | 51 | 9.6 | 13.0 | 0.00 | 0.00 | 0.00 | 46 | 1007.4 |
| 20260503171418 | 66 | 26 | 8.7 | 13.0 | 0.00 | 0.00 | 0.00 | 45 | 1007.6 |
| 20260503171304 | 66 | 39 | 7.0 | 13.0 | 0.00 | 0.00 | 0.00 | 45 | 1007.5 |
| 20260503171210 | 66 | 55 | 7.0 | 13.0 | 0.00 | 0.00 | 0.00 | 44 | 1007.5 |
| 20260503171113 | 66 | 51 | 7.8 | 13.0 | 0.00 | 0.00 | 0.00 | 45 | 1007.5 |
| 20260503171004 | 66 | 38 | 9.6 | 13.0 | 0.00 | 0.00 | 0.00 | 45 | 1007.5 |
| 20260503170908 | 66 | 40 | 9.6 | 13.0 | 0.00 | 0.00 | 0.00 | 43 | 1007.7 |
| 20260503170814 | 66 | 41 | 9.6 | 13.0 | 0.00 | 0.00 | 0.00 | 43 | 1007.4 |
| 20260503170719 | 66 | 40 | 8.7 | 13.0 | 0.00 | 0.00 | 0.00 | 44 | 1007.5 |
| 20260503170603 | 66 | 32 | 7.0 | 14.8 | 0.00 | 0.00 | 0.00 | 45 | 1007.5 |
| 20260503170507 | 66 | 26 | 6.1 | 14.8 | 0.00 | 0.00 | 0.00 | 46 | 1007.5 |
| 20260503170431 | 66 | 340 | 8.7 | 14.8 | 0.00 | 0.00 | 0.00 | 44 | 1007.5 |
| 20260503170339 | 66 | 44 | 9.6 | 14.8 | 0.00 | 0.00 | 0.00 | 44 | 1007.6 |
| 20260503170220 | 66 | 24 | 8.7 | 14.8 | 0.00 | 0.00 | 0.00 | 43 | 1007.5 |
| 20260503170124 | 66 | 64 | 9.6 | 14.8 | 0.00 | 0.00 | 0.00 | 44 | 1007.7 |
| 20260503160118 | 65 | 355 | 7.8 | 14.8 | 0.00 | 0.00 | 0.00 | 50 | 1007.3 |
| 20260503150948 | 63 | 46 | 8.7 | 14.8 | 0.00 | 0.00 | 0.00 | 53 | 1007.2 |
| 20260503150804 | 62 | 59 | 8.7 | 18.2 | 0.00 | 0.00 | 0.00 | 53 | 1007.4 |
| 20260503150706 | 62 | 38 | 9.6 | 18.2 | 0.00 | 0.00 | 0.00 | 52 | 1007.1 |
| 20260503150631 | 62 | 69 | 9.6 | 18.2 | 0.00 | 0.00 | 0.00 | 51 | 1007.3 |
| 20260503150513 | 62 | 78 | 9.6 | 18.2 | 0.00 | 0.00 | 0.00 | 50 | 1007.3 |
| 20260503150417 | 62 | 47 | 9.6 | 18.2 | 0.00 | 0.00 | 0.00 | 50 | 1007.3 |
| 20260503150318 | 62 | 68 | 9.6 | 18.2 | 0.00 | 0.00 | 0.00 | 51 | 1007.3 |
| 20260503150206 | 62 | 40 | 11.3 | 18.2 | 0.00 | 0.00 | 0.00 | 50 | 1007.2 |
| 20260503150109 | 62 | 41 | 12.2 | 18.2 | 0.00 | 0.00 | 0.00 | 50 | 1007.4 |
| 20260503140250 | 59 | 35 | 13.0 | 17.4 | 0.00 | 0.00 | 0.00 | 56 | 1007.0 |
| 20260503140105 | 59 | 86 | 11.3 | 14.8 | 0.00 | 0.00 | 0.00 | 56 | 1007.0 |
| 20260503131408 | 57 | 41 | 3.5 | 10.4 | 0.00 | 0.00 | 0.00 | 57 | 1006.4 |
| 20260503131312 | 57 | 360 | 3.5 | 10.4 | 0.00 | 0.00 | 0.00 | 57 | 1006.4 |
| 20260503131236 | 57 | 26 | 3.5 | 10.4 | 0.00 | 0.00 | 0.00 | 56 | 1006.4 |
| 20260503131122 | 57 | 43 | 6.1 | 10.4 | 0.00 | 0.00 | 0.00 | 57 | 1006.5 |
| 20260503131046 | 57 | 27 | 7.0 | 10.4 | 0.00 | 0.00 | 0.00 | 56 | 1006.5 |
| 20260503130950 | 57 | 36 | 6.1 | 10.4 | 0.00 | 0.00 | 0.00 | 57 | 1006.4 |
| 20260503130806 | 57 | 360 | 4.3 | 7.8 | 0.00 | 0.00 | 0.00 | 57 | 1006.4 |
| 20260503130709 | 57 | 13 | 3.5 | 7.8 | 0.00 | 0.00 | 0.00 | 56 | 1006.5 |
| 20260503130614 | 57 | 47 | 3.5 | 7.8 | 0.00 | 0.00 | 0.00 | 56 | 1006.4 |
| 20260503130518 | 57 | 355 | 4.3 | 7.8 | 0.00 | 0.00 | 0.00 | 56 | 1006.3 |
| 20260503130406 | 56 | 355 | 4.3 | 7.8 | 0.00 | 0.00 | 0.00 | 56 | 1006.3 |
| 20260503130310 | 56 | 21 | 4.3 | 7.8 | 0.00 | 0.00 | 0.00 | 56 | 1006.3 |
| 20260503130215 | 56 | 5 | 4.3 | 7.8 | 0.00 | 0.00 | 0.00 | 56 | 1006.4 |
| 20260503130140 | 56 | 9 | 5.2 | 7.8 | 0.00 | 0.00 | 0.00 | 56 | 1006.4 |
| 20260503120111 | 50 | 242 | 0.0 | 0.0 | 0.00 | 0.00 | 0.00 | 66 | 1005.7 |
| 20260503110828 | 53 | 242 | 0.9 | 2.6 | 0.00 | 0.00 | 0.00 | 55 | 1005.0 |
| 20260503110715 | 53 | 242 | 0.9 | 2.6 | 0.00 | 0.00 | 0.00 | 55 | 1005.0 |
| 20260503110621 | 53 | 242 | 1.7 | 2.6 | 0.00 | 0.00 | 0.00 | 55 | 1005.0 |
| 20260503110504 | 53 | 242 | 0.9 | 2.6 | 0.00 | 0.00 | 0.00 | 55 | 1005.0 |
| 20260503110429 | 53 | 242 | 0.9 | 2.6 | 0.00 | 0.00 | 0.00 | 55 | 1005.0 |
| 20260503110305 | 53 | 242 | 0.9 | 2.6 | 0.00 | 0.00 | 0.00 | 55 | 1005.0 |
| 20260503110208 | 54 | 242 | 0.9 | 2.6 | 0.00 | 0.00 | 0.00 | 55 | 1005.0 |
| 20260503110116 | 54 | 242 | 1.7 | 3.5 | 0.00 | 0.00 | 0.00 | 55 | 1005.0 |
| 20260503100231 | 57 | 258 | 6.1 | 10.4 | 0.00 | 0.00 | 0.00 | 50 | 1005.2 |
| 20260503100118 | 57 | 279 | 6.1 | 10.4 | 0.00 | 0.00 | 0.00 | 50 | 1005.1 |
| 20260503090507 | 58 | 232 | 2.6 | 9.6 | 0.00 | 0.00 | 0.00 | 51 | 1005.4 |
| 20260503090415 | 58 | 257 | 2.6 | 9.6 | 0.00 | 0.00 | 0.00 | 51 | 1005.4 |
| 20260503090319 | 58 | 244 | 2.6 | 9.6 | 0.00 | 0.00 | 0.00 | 51 | 1005.4 |
| 20260503090205 | 58 | 253 | 4.3 | 9.6 | 0.00 | 0.00 | 0.00 | 51 | 1005.5 |
| 20260503090128 | 58 | 271 | 5.2 | 9.6 | 0.00 | 0.00 | 0.00 | 51 | 1005.4 |
| 20260503081608 | 58 | 222 | 5.2 | 12.2 | 0.00 | 0.00 | 0.00 | 55 | 1005.6 |
| 20260503081531 | 58 | 231 | 7.0 | 12.2 | 0.00 | 0.00 | 0.00 | 55 | 1005.7 |
| 20260503081414 | 58 | 231 | 7.0 | 12.2 | 0.00 | 0.00 | 0.00 | 55 | 1005.6 |
| 20260503081316 | 58 | 264 | 5.2 | 12.2 | 0.00 | 0.00 | 0.00 | 55 | 1005.6 |
| 20260503081219 | 58 | 225 | 3.5 | 12.2 | 0.00 | 0.00 | 0.00 | 55 | 1005.7 |
| 20260503081107 | 58 | 246 | 4.3 | 12.2 | 0.00 | 0.00 | 0.00 | 55 | 1005.7 |
| 20260503081009 | 58 | 252 | 4.3 | 12.2 | 0.00 | 0.00 | 0.00 | 55 | 1005.7 |
| 20260503080912 | 58 | 270 | 5.2 | 12.2 | 0.00 | 0.00 | 0.00 | 55 | 1005.7 |
| 20260503080815 | 58 | 245 | 5.2 | 12.2 | 0.00 | 0.00 | 0.00 | 55 | 1005.6 |
| 20260503080718 | 58 | 232 | 3.5 | 7.0 | 0.00 | 0.00 | 0.00 | 55 | 1005.7 |
| 20260503080641 | 58 | 221 | 2.6 | 7.8 | 0.00 | 0.00 | 0.00 | 55 | 1005.8 |
| 20260503080504 | 58 | 217 | 3.5 | 7.8 | 0.00 | 0.00 | 0.00 | 55 | 1005.8 |
| 20260503080411 | 58 | 240 | 4.3 | 7.8 | 0.00 | 0.00 | 0.00 | 55 | 1005.8 |
| 20260503080314 | 58 | 251 | 3.5 | 7.8 | 0.00 | 0.00 | 0.00 | 55 | 1005.7 |
| 20260503080218 | 58 | 238 | 3.5 | 7.8 | 0.00 | 0.00 | 0.00 | 55 | 1005.8 |
| 20260503080121 | 58 | 251 | 3.5 | 7.8 | 0.00 | 0.00 | 0.00 | 55 | 1005.8 |
| 20260503072926 | 58 | 221 | 4.3 | 7.8 | 0.00 | 0.00 | 0.00 | 55 | 1006.0 |
| 20260503072829 | 58 | 231 | 5.2 | 7.8 | 0.00 | 0.00 | 0.00 | 55 | 1006.1 |
| 20260503072704 | 58 | 248 | 4.3 | 7.8 | 0.00 | 0.00 | 0.00 | 56 | 1006.0 |
| 20260503072627 | 58 | 257 | 3.5 | 7.0 | 0.00 | 0.00 | 0.00 | 56 | 1006.1 |
| 20260503072550 | 58 | 271 | 3.5 | 7.0 | 0.00 | 0.00 | 0.00 | 56 | 1006.2 |
| 20260503072405 | 58 | 240 | 3.5 | 7.0 | 0.00 | 0.00 | 0.00 | 56 | 1006.1 |
| 20260503072314 | 58 | 212 | 3.5 | 7.0 | 0.00 | 0.00 | 0.00 | 56 | 1006.2 |
| 20260503072239 | 58 | 245 | 4.3 | 7.0 | 0.00 | 0.00 | 0.00 | 56 | 1006.2 |
| 20260503072121 | 58 | 228 | 4.3 | 7.0 | 0.00 | 0.00 | 0.00 | 56 | 1006.2 |
| 20260503072006 | 57 | 235 | 4.3 | 7.0 | 0.00 | 0.00 | 0.00 | 56 | 1006.2 |
| 20260503071930 | 57 | 244 | 3.5 | 7.0 | 0.00 | 0.00 | 0.00 | 56 | 1006.2 |
| 20260503071806 | 57 | 216 | 3.5 | 7.0 | 0.00 | 0.00 | 0.00 | 56 | 1006.2 |
| 20260503071710 | 57 | 209 | 3.5 | 7.0 | 0.00 | 0.00 | 0.00 | 56 | 1006.2 |
| 20260503071619 | 57 | 217 | 3.5 | 7.0 | 0.00 | 0.00 | 0.00 | 56 | 1006.2 |
| 20260503071522 | 57 | 219 | 4.3 | 7.0 | 0.00 | 0.00 | 0.00 | 56 | 1006.2 |
| 20260503071427 | 57 | 239 | 3.5 | 7.8 | 0.00 | 0.00 | 0.00 | 57 | 1006.3 |
| 20260503071309 | 57 | 234 | 3.5 | 7.8 | 0.00 | 0.00 | 0.00 | 56 | 1006.3 |
| 20260503071214 | 57 | 234 | 3.5 | 7.8 | 0.00 | 0.00 | 0.00 | 56 | 1006.3 |
| 20260503071119 | 57 | 224 | 2.6 | 7.8 | 0.00 | 0.00 | 0.00 | 56 | 1006.3 |
| 20260503071041 | 57 | 217 | 2.6 | 7.8 | 0.00 | 0.00 | 0.00 | 56 | 1006.3 |
| 20260503070909 | 57 | 208 | 2.6 | 7.8 | 0.00 | 0.00 | 0.00 | 56 | 1006.3 |
| 20260503070813 | 57 | 212 | 2.6 | 7.8 | 0.00 | 0.00 | 0.00 | 56 | 1006.4 |
| 20260503070736 | 57 | 215 | 2.6 | 7.8 | 0.00 | 0.00 | 0.00 | 56 | 1006.3 |
| 20260503070620 | 57 | 225 | 1.7 | 7.8 | 0.00 | 0.00 | 0.00 | 56 | 1006.4 |
| 20260503070545 | 57 | 227 | 2.6 | 7.8 | 0.00 | 0.00 | 0.00 | 56 | 1006.4 |
| 20260503070448 | 57 | 231 | 2.6 | 7.8 | 0.00 | 0.00 | 0.00 | 56 | 1006.6 |
| 20260503070304 | 57 | 217 | 2.6 | 7.8 | 0.00 | 0.00 | 0.00 | 56 | 1006.6 |
| 20260503070212 | 57 | 194 | 3.5 | 7.8 | 0.00 | 0.00 | 0.00 | 56 | 1006.6 |
| 20260503070117 | 57 | 192 | 4.3 | 7.8 | 0.00 | 0.00 | 0.00 | 55 | 1006.6 |
| 20260503060311 | 58 | 219 | 5.2 | 8.7 | 0.00 | 0.00 | 0.00 | 51 | 1007.4 |
| 20260503060235 | 58 | 209 | 5.2 | 8.7 | 0.00 | 0.00 | 0.00 | 51 | 1007.4 |
| 20260503060103 | 58 | 215 | 3.5 | 7.0 | 0.00 | 0.00 | 0.00 | 51 | 1007.5 |
| 20260503055126 | 58 | 227 | 3.5 | 9.6 | 0.00 | 0.00 | 0.00 | 50 | 1007.7 |
| 20260503055010 | 58 | 211 | 4.3 | 9.6 | 0.00 | 0.00 | 0.00 | 50 | 1007.8 |
| 20260503054933 | 58 | 242 | 5.2 | 9.6 | 0.00 | 0.00 | 0.00 | 50 | 1007.7 |
| 20260503054819 | 58 | 229 | 5.2 | 9.6 | 0.00 | 0.00 | 0.00 | 50 | 1007.8 |
| 20260503054704 | 58 | 241 | 3.5 | 9.6 | 0.00 | 0.00 | 0.00 | 50 | 1007.9 |
| 20260503054629 | 58 | 219 | 2.6 | 8.7 | 0.00 | 0.00 | 0.00 | 50 | 1007.8 |
| 20260503054505 | 58 | 223 | 2.6 | 8.7 | 0.00 | 0.00 | 0.00 | 50 | 1007.8 |
| 20260503054429 | 58 | 231 | 4.3 | 9.6 | 0.00 | 0.00 | 0.00 | 51 | 1007.9 |
| 20260503054306 | 58 | 202 | 4.3 | 9.6 | 0.00 | 0.00 | 0.00 | 50 | 1007.9 |
| 20260503054215 | 58 | 240 | 4.3 | 9.6 | 0.00 | 0.00 | 0.00 | 51 | 1007.9 |
| 20260503054118 | 58 | 217 | 5.2 | 9.6 | 0.00 | 0.00 | 0.00 | 50 | 1007.8 |
| 20260503054018 | 58 | 183 | 5.2 | 9.6 | 0.00 | 0.00 | 0.00 | 50 | 1007.8 |
| 20260503053904 | 58 | 198 | 4.3 | 9.6 | 0.00 | 0.00 | 0.00 | 50 | 1007.9 |
| 20260503053827 | 58 | 227 | 4.3 | 9.6 | 0.00 | 0.00 | 0.00 | 51 | 1007.9 |
| 20260503053710 | 58 | 231 | 5.2 | 9.6 | 0.00 | 0.00 | 0.00 | 51 | 1008.0 |
| 20260503053615 | 58 | 201 | 6.1 | 9.6 | 0.00 | 0.00 | 0.00 | 50 | 1008.0 |
| 20260503053522 | 58 | 244 | 4.3 | 9.6 | 0.00 | 0.00 | 0.00 | 51 | 1007.9 |
| 20260503053425 | 58 | 241 | 3.5 | 9.6 | 0.00 | 0.00 | 0.00 | 51 | 1008.0 |
| 20260503053303 | 58 | 251 | 2.6 | 9.6 | 0.00 | 0.00 | 0.00 | 51 | 1008.0 |
| 20260503053207 | 58 | 221 | 4.3 | 9.6 | 0.00 | 0.00 | 0.00 | 51 | 1008.0 |
| 20260503053111 | 58 | 220 | 6.1 | 9.6 | 0.00 | 0.00 | 0.00 | 50 | 1007.9 |
| 20260503053015 | 58 | 242 | 6.1 | 9.6 | 0.00 | 0.00 | 0.00 | 50 | 1008.0 |
| 20260503052944 | 58 | 232 | 5.2 | 9.6 | 0.00 | 0.00 | 0.00 | 51 | 1008.0 |
| 20260503052847 | 58 | 248 | 3.5 | 9.6 | 0.00 | 0.00 | 0.00 | 52 | 1008.0 |
| 20260503052703 | 58 | 245 | 4.3 | 9.6 | 0.00 | 0.00 | 0.00 | 51 | 1008.0 |
| 20260503052608 | 58 | 247 | 4.3 | 9.6 | 0.00 | 0.00 | 0.00 | 51 | 1008.0 |
| 20260503052531 | 58 | 223 | 5.2 | 9.6 | 0.00 | 0.00 | 0.00 | 51 | 1007.9 |
| 20260503052414 | 58 | 235 | 4.3 | 9.6 | 0.00 | 0.00 | 0.00 | 51 | 1007.9 |
| 20260503052338 | 58 | 234 | 4.3 | 8.7 | 0.00 | 0.00 | 0.00 | 51 | 1007.9 |
| 20260503052204 | 58 | 214 | 4.3 | 8.7 | 0.00 | 0.00 | 0.00 | 52 | 1007.9 |
| 20260503052108 | 58 | 227 | 3.5 | 7.0 | 0.00 | 0.00 | 0.00 | 52 | 1007.8 |
| 20260503052012 | 58 | 235 | 3.5 | 7.8 | 0.00 | 0.00 | 0.00 | 51 | 1007.9 |
| 20260503051917 | 58 | 229 | 4.3 | 7.8 | 0.00 | 0.00 | 0.00 | 52 | 1007.9 |
| 20260503051819 | 58 | 220 | 4.3 | 7.8 | 0.00 | 0.00 | 0.00 | 52 | 1007.9 |
| 20260503051723 | 58 | 254 | 4.3 | 7.8 | 0.00 | 0.00 | 0.00 | 52 | 1008.0 |
| 20260503051611 | 58 | 232 | 4.3 | 7.8 | 0.00 | 0.00 | 0.00 | 52 | 1007.9 |
| 20260503051514 | 58 | 214 | 3.5 | 7.8 | 0.00 | 0.00 | 0.00 | 52 | 1007.9 |
| 20260503051418 | 58 | 234 | 3.5 | 7.8 | 0.00 | 0.00 | 0.00 | 52 | 1007.9 |
| 20260503051322 | 58 | 206 | 4.3 | 7.8 | 0.00 | 0.00 | 0.00 | 52 | 1007.9 |
| 20260503051227 | 58 | 206 | 5.2 | 7.8 | 0.00 | 0.00 | 0.00 | 52 | 1007.9 |
| 20260503051130 | 58 | 197 | 4.3 | 7.8 | 0.00 | 0.00 | 0.00 | 51 | 1007.9 |
| 20260503051012 | 58 | 193 | 5.2 | 7.8 | 0.00 | 0.00 | 0.00 | 51 | 1007.9 |
| 20260503050920 | 58 | 190 | 4.3 | 7.8 | 0.00 | 0.00 | 0.00 | 51 | 1007.9 |
| 20260503050824 | 58 | 202 | 4.3 | 7.8 | 0.00 | 0.00 | 0.00 | 51 | 1007.9 |
| 20260503050748 | 58 | 198 | 4.3 | 6.1 | 0.00 | 0.00 | 0.00 | 51 | 1008.0 |
| 20260503050603 | 58 | 199 | 3.5 | 6.1 | 0.00 | 0.00 | 0.00 | 51 | 1008.0 |
| 20260503050527 | 58 | 198 | 3.5 | 6.1 | 0.00 | 0.00 | 0.00 | 51 | 1008.0 |
| 20260503050404 | 59 | 227 | 3.5 | 6.1 | 0.00 | 0.00 | 0.00 | 51 | 1008.0 |
| 20260503050307 | 59 | 207 | 3.5 | 6.1 | 0.00 | 0.00 | 0.00 | 51 | 1008.0 |
| 20260503050215 | 59 | 207 | 3.5 | 6.1 | 0.00 | 0.00 | 0.00 | 51 | 1008.1 |
| 20260503050119 | 59 | 207 | 3.5 | 6.1 | 0.00 | 0.00 | 0.00 | 51 | 1008.1 |
| 20260503050014 | 59 | 202 | 3.5 | 6.1 | 0.00 | 0.00 | 0.00 | 51 | 1008.1 |
| 20260503045919 | 59 | 219 | 3.5 | 6.1 | 0.00 | 0.00 | 0.00 | 51 | 1008.1 |
| 20260503045842 | 59 | 217 | 3.5 | 6.1 | 0.00 | 0.00 | 0.00 | 51 | 1008.1 |
| 20260503045705 | 59 | 197 | 2.6 | 7.8 | 0.00 | 0.00 | 0.00 | 51 | 1008.1 |
| 20260503045613 | 59 | 216 | 2.6 | 7.8 | 0.00 | 0.00 | 0.00 | 51 | 1008.1 |
| 20260503045517 | 59 | 213 | 2.6 | 7.8 | 0.00 | 0.00 | 0.00 | 51 | 1008.1 |
| 20260503045422 | 59 | 213 | 2.6 | 7.8 | 0.00 | 0.00 | 0.00 | 51 | 1008.2 |
| 20260503045326 | 59 | 223 | 2.6 | 7.8 | 0.00 | 0.00 | 0.00 | 51 | 1008.1 |
| 20260503045250 | 59 | 217 | 3.5 | 7.8 | 0.00 | 0.00 | 0.00 | 51 | 1008.1 |
| 20260503045106 | 59 | 244 | 3.5 | 7.8 | 0.00 | 0.00 | 0.00 | 51 | 1008.2 |
| 20260503045009 | 59 | 243 | 4.3 | 7.8 | 0.00 | 0.00 | 0.00 | 51 | 1008.2 |
| 20260503044918 | 59 | 207 | 4.3 | 7.8 | 0.00 | 0.00 | 0.00 | 50 | 1008.2 |
| 20260503044822 | 59 | 229 | 5.2 | 7.8 | 0.00 | 0.00 | 0.00 | 51 | 1008.2 |
| 20260503044726 | 59 | 227 | 4.3 | 7.0 | 0.00 | 0.00 | 0.00 | 50 | 1008.2 |
| 20260503044609 | 59 | 198 | 3.5 | 7.0 | 0.00 | 0.00 | 0.00 | 51 | 1008.2 |
| 20260503044513 | 59 | 206 | 3.5 | 7.0 | 0.00 | 0.00 | 0.00 | 50 | 1008.1 |
| 20260503044418 | 59 | 212 | 3.5 | 7.0 | 0.00 | 0.00 | 0.00 | 51 | 1008.1 |
| 20260503044326 | 59 | 192 | 3.5 | 7.0 | 0.00 | 0.00 | 0.00 | 51 | 1008.2 |
| 20260503044228 | 59 | 188 | 4.3 | 7.0 | 0.00 | 0.00 | 0.00 | 50 | 1008.2 |
| 20260503044132 | 59 | 212 | 4.3 | 7.0 | 0.00 | 0.00 | 0.00 | 50 | 1008.2 |
| 20260503044014 | 59 | 235 | 3.5 | 7.0 | 0.00 | 0.00 | 0.00 | 50 | 1008.2 |
| 20260503043919 | 59 | 213 | 3.5 | 7.0 | 0.00 | 0.00 | 0.00 | 50 | 1008.3 |
| 20260503043803 | 59 | 217 | 3.5 | 7.0 | 0.00 | 0.00 | 0.00 | 50 | 1008.3 |
| 20260503043707 | 59 | 211 | 2.6 | 7.0 | 0.00 | 0.00 | 0.00 | 51 | 1008.3 |
| 20260503043615 | 59 | 209 | 3.5 | 7.0 | 0.00 | 0.00 | 0.00 | 50 | 1008.3 |
| 20260503043520 | 59 | 210 | 4.3 | 7.0 | 0.00 | 0.00 | 0.00 | 50 | 1008.3 |
| 20260503043405 | 59 | 182 | 3.5 | 6.1 | 0.00 | 0.00 | 0.00 | 50 | 1008.3 |
| 20260503043309 | 59 | 194 | 3.5 | 6.1 | 0.00 | 0.00 | 0.00 | 50 | 1008.3 |
| 20260503043212 | 59 | 209 | 3.5 | 6.1 | 0.00 | 0.00 | 0.00 | 50 | 1008.3 |
| 20260503043115 | 60 | 217 | 3.5 | 7.0 | 0.00 | 0.00 | 0.00 | 50 | 1008.3 |
| 20260503043004 | 60 | 211 | 3.5 | 7.0 | 0.00 | 0.00 | 0.00 | 50 | 1008.4 |
| 20260503042908 | 60 | 211 | 3.5 | 7.0 | 0.00 | 0.00 | 0.00 | 50 | 1008.4 |
| 20260503042812 | 60 | 205 | 4.3 | 7.0 | 0.00 | 0.00 | 0.00 | 50 | 1008.4 |
| 20260503042716 | 60 | 240 | 4.3 | 7.0 | 0.00 | 0.00 | 0.00 | 50 | 1008.4 |
| 20260503042622 | 60 | 223 | 3.5 | 7.0 | 0.00 | 0.00 | 0.00 | 50 | 1008.4 |
| 20260503042507 | 60 | 211 | 3.5 | 7.0 | 0.00 | 0.00 | 0.00 | 50 | 1008.5 |
| 20260503042417 | 60 | 210 | 3.5 | 7.0 | 0.00 | 0.00 | 0.00 | 50 | 1008.4 |
| 20260503042322 | 60 | 203 | 3.5 | 7.0 | 0.00 | 0.00 | 0.00 | 50 | 1008.4 |
| 20260503042207 | 60 | 204 | 4.3 | 6.1 | 0.00 | 0.00 | 0.00 | 50 | 1008.5 |
| 20260503042111 | 60 | 199 | 4.3 | 6.1 | 0.00 | 0.00 | 0.00 | 50 | 1008.5 |
| 20260503042017 | 60 | 193 | 3.5 | 6.1 | 0.00 | 0.00 | 0.00 | 50 | 1008.4 |
| 20260503041907 | 60 | 215 | 2.6 | 6.1 | 0.00 | 0.00 | 0.00 | 51 | 1008.5 |
| 20260503041811 | 60 | 225 | 3.5 | 6.1 | 0.00 | 0.00 | 0.00 | 50 | 1008.5 |
| 20260503041717 | 59 | 223 | 3.5 | 6.1 | 0.00 | 0.00 | 0.00 | 50 | 1008.6 |
| 20260503041603 | 59 | 219 | 3.5 | 6.1 | 0.00 | 0.00 | 0.00 | 50 | 1008.5 |
| 20260503041509 | 60 | 222 | 3.5 | 6.1 | 0.00 | 0.00 | 0.00 | 50 | 1008.6 |
| 20260503041414 | 59 | 221 | 2.6 | 5.2 | 0.00 | 0.00 | 0.00 | 50 | 1008.6 |
| 20260503041304 | 59 | 212 | 2.6 | 5.2 | 0.00 | 0.00 | 0.00 | 51 | 1008.6 |
| 20260503041208 | 59 | 213 | 3.5 | 5.2 | 0.00 | 0.00 | 0.00 | 51 | 1008.6 |
| 20260503041113 | 59 | 213 | 3.5 | 5.2 | 0.00 | 0.00 | 0.00 | 50 | 1008.6 |
| 20260503041037 | 59 | 221 | 3.5 | 5.2 | 0.00 | 0.00 | 0.00 | 50 | 1008.5 |
| 20260503040921 | 59 | 211 | 3.5 | 6.1 | 0.00 | 0.00 | 0.00 | 50 | 1008.7 |
| 20260503040806 | 59 | 214 | 3.5 | 6.1 | 0.00 | 0.00 | 0.00 | 50 | 1008.7 |
| 20260503040715 | 59 | 209 | 3.5 | 6.1 | 0.00 | 0.00 | 0.00 | 50 | 1008.6 |
| 20260503040618 | 59 | 207 | 2.6 | 6.1 | 0.00 | 0.00 | 0.00 | 50 | 1008.6 |
| 20260503040522 | 59 | 202 | 2.6 | 6.1 | 0.00 | 0.00 | 0.00 | 51 | 1008.6 |
| 20260503040406 | 60 | 207 | 3.5 | 6.1 | 0.00 | 0.00 | 0.00 | 51 | 1008.6 |
| 20260503040329 | 59 | 207 | 3.5 | 6.1 | 0.00 | 0.00 | 0.00 | 50 | 1008.7 |
| 20260503040206 | 59 | 220 | 3.5 | 6.1 | 0.00 | 0.00 | 0.00 | 50 | 1008.7 |
| 20260503040115 | 59 | 217 | 3.5 | 6.1 | 0.00 | 0.00 | 0.00 | 50 | 1008.7 |
| 20260503040019 | 59 | 221 | 3.5 | 6.1 | 0.00 | 0.00 | 0.00 | 51 | 1008.7 |
| 20260503035904 | 59 | 207 | 3.5 | 6.1 | 0.00 | 0.00 | 0.00 | 51 | 1008.8 |
| 20260503035807 | 59 | 215 | 3.5 | 6.1 | 0.00 | 0.00 | 0.00 | 51 | 1008.7 |
| 20260503035712 | 59 | 198 | 3.5 | 6.1 | 0.00 | 0.00 | 0.00 | 51 | 1008.8 |
| 20260503035616 | 59 | 197 | 3.5 | 6.1 | 0.00 | 0.00 | 0.00 | 51 | 1008.8 |
| 20260503035540 | 59 | 195 | 3.5 | 6.1 | 0.00 | 0.00 | 0.00 | 51 | 1008.8 |
| 20260503035407 | 59 | 230 | 3.5 | 6.1 | 0.00 | 0.00 | 0.00 | 51 | 1008.8 |
| 20260503035311 | 59 | 198 | 2.6 | 6.1 | 0.00 | 0.00 | 0.00 | 51 | 1008.8 |
| 20260503035234 | 59 | 209 | 3.5 | 6.1 | 0.00 | 0.00 | 0.00 | 52 | 1008.8 |
| 20260503035117 | 59 | 209 | 2.6 | 6.1 | 0.00 | 0.00 | 0.00 | 52 | 1008.9 |
| 20260503035021 | 59 | 228 | 2.6 | 6.1 | 0.00 | 0.00 | 0.00 | 52 | 1009.0 |
| 20260503034944 | 59 | 219 | 1.7 | 6.1 | 0.00 | 0.00 | 0.00 | 52 | 1009.0 |
| 20260503034811 | 59 | 219 | 1.7 | 6.1 | 0.00 | 0.00 | 0.00 | 52 | 1009.0 |
| 20260503034735 | 59 | 219 | 2.6 | 6.1 | 0.00 | 0.00 | 0.00 | 52 | 1009.1 |
| 20260503034618 | 59 | 219 | 2.6 | 6.1 | 0.00 | 0.00 | 0.00 | 51 | 1009.1 |
| 20260503034521 | 59 | 204 | 2.6 | 5.2 | 0.00 | 0.00 | 0.00 | 52 | 1009.0 |
| 20260503034405 | 59 | 203 | 3.5 | 5.2 | 0.00 | 0.00 | 0.00 | 52 | 1009.0 |
| 20260503034309 | 59 | 202 | 3.5 | 5.2 | 0.00 | 0.00 | 0.00 | 52 | 1009.0 |
| 20260503034212 | 59 | 204 | 3.5 | 5.2 | 0.00 | 0.00 | 0.00 | 52 | 1009.0 |
| 20260503034139 | 59 | 211 | 2.6 | 5.2 | 0.00 | 0.00 | 0.00 | 52 | 1009.0 |
| 20260503034042 | 59 | 202 | 2.6 | 5.2 | 0.00 | 0.00 | 0.00 | 52 | 1009.1 |
| 20260503033925 | 59 | 208 | 2.6 | 5.2 | 0.00 | 0.00 | 0.00 | 51 | 1009.1 |
| 20260503033828 | 59 | 208 | 2.6 | 5.2 | 0.00 | 0.00 | 0.00 | 51 | 1009.2 |
| 20260503033706 | 60 | 211 | 3.5 | 5.2 | 0.00 | 0.00 | 0.00 | 52 | 1009.1 |
| 20260503033629 | 60 | 211 | 3.5 | 5.2 | 0.00 | 0.00 | 0.00 | 52 | 1009.2 |
| 20260503033511 | 60 | 220 | 2.6 | 5.2 | 0.00 | 0.00 | 0.00 | 51 | 1009.2 |
| 20260503033435 | 60 | 200 | 2.6 | 4.3 | 0.00 | 0.00 | 0.00 | 52 | 1009.2 |
| 20260503033323 | 60 | 198 | 2.6 | 6.1 | 0.00 | 0.00 | 0.00 | 52 | 1009.1 |
| 20260503033207 | 60 | 198 | 2.6 | 6.1 | 0.00 | 0.00 | 0.00 | 51 | 1009.2 |
| 20260503033111 | 60 | 198 | 2.6 | 6.1 | 0.00 | 0.00 | 0.00 | 51 | 1009.4 |
| 20260503033014 | 60 | 198 | 1.7 | 6.1 | 0.00 | 0.00 | 0.00 | 51 | 1009.3 |
| 20260503032919 | 60 | 198 | 2.6 | 7.0 | 0.00 | 0.00 | 0.00 | 50 | 1009.4 |
| 20260503032823 | 60 | 198 | 2.6 | 7.0 | 0.00 | 0.00 | 0.00 | 51 | 1009.4 |
| 20260503032731 | 60 | 197 | 2.6 | 7.0 | 0.00 | 0.00 | 0.00 | 51 | 1009.4 |